M I D A S
Marine Information and Data Acquisition System
Tripno 1442 of the Zeeleeuw from 2008-03-20 07:41:39 to 2008-03-20 15:24:56
Back to CruiseResearch ActivitiesStationsMapUnderway DataData graphs

EquipmentUnitsComment
TimeDGPSUTC
LatitudeDGPSDM.mWGS84
LongitudeDGPSDM.mWGS84
TemperatureSBE03/SBE38deg celciusITS90
ConductivitySBE21S/mITS90
SalinitySBE21 Practical Salinity Units
ChlorophylAChelsea fluorimeterg/lCalibrated in Aceton
Missing or incorrect values are displayed as -999
Sea surface data collected by the RV Zeeleeuw from 2008-03-20 07:38:23 to 2008-03-20 15:35:19
                                                                                    Next 1000 lines
Time Latitude Longitude Temperature Conductivity Salinity ChlorophylA
2008-03-20 07:38:33 51°13.665 2°55.951 14.9395 1.037606 6.437383 -1.766697
2008-03-20 07:38:38 51°13.666 2°55.949 14.9402 1.037503 6.436694 -1.766697
2008-03-20 07:38:43 51°13.667 2°55.947 14.9405 1.037606 6.437498 -1.731873
2008-03-20 07:38:48 51°13.668 2°55.943 14.9405 1.037503 6.436809 -1.766697
2008-03-20 07:38:53 51°13.67 2°55.939 14.9411 1.037503 6.436809 -1.766697
2008-03-20 07:38:58 51°13.671 2°55.934 14.9416 1.037503 6.436809 -1.731873
2008-03-20 07:39:03 51°13.673 2°55.929 14.9419 1.037503 6.436923 -1.731873
2008-03-20 07:39:08 51°13.675 2°55.924 14.9424 1.037503 6.436923 -1.731873
2008-03-20 07:39:13 51°13.676 2°55.918 14.9425 1.037503 6.436923 -1.731873
2008-03-20 07:39:18 51°13.678 2°55.911 14.9429 1.037503 6.436923 -1.731873
2008-03-20 07:39:23 51°13.679 2°55.904 14.9436 1.037503 6.436923 -1.731873
2008-03-20 07:39:28 51°13.681 2°55.897 14.9438 1.037503 6.437037 -1.731873
2008-03-20 07:39:33 51°13.683 2°55.89 14.9442 1.037503 6.437037 -1.766697
2008-03-20 07:39:38 51°13.684 2°55.882 14.9444 1.037503 6.437037 -1.731873
2008-03-20 07:39:43 51°13.685 2°55.875 14.9448 1.037503 6.437152 -1.731873
2008-03-20 07:39:48 51°13.686 2°55.868 14.9455 1.037503 6.437152 -1.731873
2008-03-20 07:39:53 51°13.687 2°55.861 14.9458 1.037503 6.437152 -1.731873
2008-03-20 07:39:58 51°13.688 2°55.854 14.9462 1.037503 6.437152 -1.731873
2008-03-20 07:40:03 51°13.689 2°55.847 14.9464 1.037503 6.437152 -1.731873
2008-03-20 07:40:08 51°13.69 2°55.841 14.9471 1.037503 6.437152 -1.731873
2008-03-20 07:40:13 51°13.691 2°55.835 14.9474 1.037503 6.437152 -1.766697
2008-03-20 07:40:18 51°13.692 2°55.828 14.9478 1.037503 6.437152 -1.731873
2008-03-20 07:40:23 51°13.692 2°55.821 14.9484 1.037503 6.437152 -1.731873
2008-03-20 07:40:28 51°13.692 2°55.815 14.9485 1.037503 6.437266 -1.731873
2008-03-20 07:40:33 51°13.693 2°55.809 14.9492 1.037503 6.437266 -1.766697
2008-03-20 07:40:38 51°13.693 2°55.803 14.9497 1.037503 6.437266 -1.766697
2008-03-20 07:40:43 51°13.693 2°55.797 14.9498 1.037503 6.437266 -1.766697
2008-03-20 07:40:48 51°13.693 2°55.791 14.9505 1.037503 6.437152 -1.766697
2008-03-20 07:40:53 51°13.693 2°55.786 14.9508 1.037503 6.437152 -1.766697
2008-03-20 07:40:58 51°13.693 2°55.781 14.9514 1.037503 6.437266 -1.731873
2008-03-20 07:41:03 51°13.693 2°55.776 14.9518 1.037503 6.437266 -1.731873
2008-03-20 07:41:08 51°13.693 2°55.771 14.9523 1.0374 6.436691 -1.731873
2008-03-20 07:41:13 51°13.692 2°55.767 14.9528 1.037503 6.43738 -1.731873
2008-03-20 07:41:18 51°13.692 2°55.763 14.9531 1.037503 6.43738 -1.766697
2008-03-20 07:41:23 51°13.692 2°55.76 14.9539 1.037503 6.43738 -1.766697
2008-03-20 07:41:28 51°13.691 2°55.757 14.954 1.0374 6.436806 -1.731873
2008-03-20 07:41:33 51°13.691 2°55.754 14.9547 1.0374 6.436806 -1.731873
2008-03-20 07:41:38 51°13.69 2°55.751 14.9545 1.0374 6.43692 -1.731873
2008-03-20 07:41:43 51°13.69 2°55.749 14.9554 1.0374 6.43692 -1.731873
2008-03-20 07:41:48 51°13.69 2°55.748 14.9558 1.0374 6.43692 -1.731873
2008-03-20 07:41:53 51°13.689 2°55.746 14.9561 1.0374 6.43692 -1.731873
2008-03-20 07:41:58 51°13.689 2°55.745 14.9563 1.0374 6.437034 -1.731873
2008-03-20 07:42:03 51°13.689 2°55.745 14.9568 1.0374 6.437034 -1.731873
2008-03-20 07:42:08 51°13.689 2°55.744 14.9573 1.0374 6.437034 -1.766697
2008-03-20 07:42:13 51°13.689 2°55.744 14.9578 1.0374 6.437034 -1.731873
2008-03-20 07:42:18 51°13.689 2°55.744 14.9581 1.0374 6.437149 -1.731873
2008-03-20 07:42:23 51°13.69 2°55.744 14.9582 1.0374 6.437149 -1.731873
2008-03-20 07:42:28 51°13.69 2°55.744 14.9589 1.0374 6.437149 -1.766697
2008-03-20 07:42:33 51°13.691 2°55.744 14.9593 1.0374 6.437149 -1.731873
2008-03-20 07:42:38 51°13.692 2°55.745 14.9599 1.0374 6.437263 -1.766697
2008-03-20 07:42:43 51°13.692 2°55.745 14.9601 1.0374 6.437263 -1.766697
2008-03-20 07:42:48 51°13.694 2°55.746 14.9604 1.0374 6.437377 -1.731873
2008-03-20 07:42:53 51°13.695 2°55.746 14.9611 1.0374 6.437377 -1.731873
2008-03-20 07:42:58 51°13.696 2°55.747 14.961 1.0374 6.437377 -1.731873
2008-03-20 07:43:03 51°13.697 2°55.748 14.9619 1.0374 6.437492 -1.731873
2008-03-20 07:43:08 51°13.699 2°55.748 14.9618 1.0374 6.437492 -1.731873
2008-03-20 07:43:13 51°13.701 2°55.748 14.9626 1.0374 6.437606 -1.766697
2008-03-20 07:43:18 51°13.702 2°55.748 14.9626 1.0374 6.437606 -1.731873
2008-03-20 07:43:23 51°13.704 2°55.748 14.9631 1.0374 6.437606 -1.731873
2008-03-20 07:43:28 51°13.706 2°55.748 14.9631 1.0374 6.437606 -1.731873
2008-03-20 07:43:33 51°13.708 2°55.747 14.9636 1.0374 6.437721 -1.766697
2008-03-20 07:43:38 51°13.711 2°55.747 14.9639 1.037297 6.436917 -1.766697
2008-03-20 07:43:43 51°13.713 2°55.746 14.9644 1.037297 6.437031 -1.731873
2008-03-20 07:43:48 51°13.716 2°55.745 14.9646 1.037297 6.437146 -1.731873
2008-03-20 07:43:53 51°13.719 2°55.743 14.965 1.037297 6.437146 -1.731873
2008-03-20 07:43:58 51°13.723 2°55.741 14.9656 1.037297 6.437146 -1.731873
2008-03-20 07:44:03 51°13.727 2°55.737 14.9659 1.037297 6.437146 -1.731873
2008-03-20 07:44:08 51°13.732 2°55.733 14.9663 1.037297 6.43726 -1.731873
2008-03-20 07:44:13 51°13.738 2°55.728 14.9664 1.037297 6.437146 -1.731873
2008-03-20 07:44:18 51°13.744 2°55.722 14.9669 1.037297 6.437146 -1.731873
2008-03-20 07:44:23 51°13.75 2°55.715 14.9667 1.037297 6.437146 -1.731873
2008-03-20 07:44:28 51°13.758 2°55.707 14.9675 1.037297 6.437146 -1.731873
2008-03-20 07:44:33 51°13.764 2°55.699 14.9678 1.037297 6.437146 -1.731873
2008-03-20 07:44:38 51°13.772 2°55.69 14.9678 1.037297 6.437146 -1.731873
2008-03-20 07:44:43 51°13.78 2°55.681 14.9684 1.037297 6.437146 -1.766697
2008-03-20 07:44:48 51°13.788 2°55.672 14.9687 1.037297 6.43726 -1.731873
2008-03-20 07:44:53 51°13.797 2°55.663 14.969 1.037297 6.43726 -1.731873
2008-03-20 07:44:58 51°13.806 2°55.654 14.9694 1.037297 6.437375 -1.731873
2008-03-20 07:45:03 51°13.815 2°55.645 14.9698 1.037297 6.437489 -1.731873
2008-03-20 07:45:08 51°13.824 2°55.636 14.9705 1.037297 6.437489 -1.731873
2008-03-20 07:45:13 51°13.834 2°55.628 14.9706 1.037297 6.437718 -1.731873
2008-03-20 07:45:18 51°13.844 2°55.619 14.9706 1.037297 6.437718 -1.731873
2008-03-20 07:45:23 51°13.854 2°55.611 14.9708 1.037297 6.437718 -1.731873
2008-03-20 07:45:28 51°13.864 2°55.604 14.9712 1.037193 6.437029 -1.766697
2008-03-20 07:45:32 51°13.873 2°55.598 14.9714 1.037193 6.437143 -1.731873
2008-03-20 07:45:38 51°13.885 2°55.588 14.972 1.037193 6.437143 -1.766697
2008-03-20 07:45:43 51°13.896 2°55.58 14.9724 1.037193 6.437372 -1.731873
2008-03-20 07:45:48 51°13.906 2°55.572 14.9727 1.037193 6.437486 -1.766697
2008-03-20 07:45:53 51°13.917 2°55.564 14.973 1.037193 6.437486 -1.766697
2008-03-20 07:45:58 51°13.928 2°55.557 14.9733 1.037193 6.437486 -1.731873
2008-03-20 07:46:03 51°13.939 2°55.549 14.974 1.037193 6.437486 -1.766697
2008-03-20 07:46:08 51°13.95 2°55.541 14.9744 1.037193 6.437601 -1.731873
2008-03-20 07:46:13 51°13.961 2°55.533 14.9747 1.037193 6.437715 -1.766697
2008-03-20 07:46:18 51°13.972 2°55.526 14.9751 1.037193 6.437715 -1.731873
2008-03-20 07:46:23 51°13.983 2°55.519 14.9756 1.037193 6.437715 -1.731873
2008-03-20 07:46:28 51°13.994 2°55.511 14.9759 1.037194 6.437829 -1.731873
2008-03-20 07:46:33 51°14.005 2°55.503 14.9761 1.037194 6.437829 -1.766697
2008-03-20 07:46:38 51°14.016 2°55.496 14.9769 1.037194 6.437829 -1.731873
2008-03-20 07:46:43 51°14.027 2°55.488 14.9771 1.037194 6.437944 -1.731873
2008-03-20 07:46:48 51°14.037 2°55.48 14.9777 1.03709 6.437369 -1.731873
2008-03-20 07:46:53 51°14.048 2°55.471 14.9783 1.03709 6.437369 -1.731873
2008-03-20 07:46:58 51°14.059 2°55.463 14.9786 1.03709 6.437369 -1.731873
2008-03-20 07:47:03 51°14.069 2°55.454 14.979 1.03709 6.437369 -1.766697
2008-03-20 07:47:08 51°14.08 2°55.446 14.9795 1.03709 6.437369 -1.766697
2008-03-20 07:47:13 51°14.091 2°55.438 14.9803 1.03709 6.437483 -1.731873
2008-03-20 07:47:18 51°14.102 2°55.43 14.9804 1.03709 6.437483 -1.766697
2008-03-20 07:47:23 51°14.112 2°55.421 14.9809 1.03709 6.437483 -1.766697
2008-03-20 07:47:28 51°14.122 2°55.412 14.9816 1.03709 6.437598 -1.731873
2008-03-20 07:47:33 51°14.133 2°55.404 14.9816 1.03709 6.437598 -1.731873
2008-03-20 07:47:38 51°14.143 2°55.395 14.9821 1.03709 6.437712 -1.731873
2008-03-20 07:47:43 51°14.154 2°55.387 14.9828 1.03709 6.437712 -1.731873
2008-03-20 07:47:48 51°14.164 2°55.377 14.9831 1.03709 6.437712 -1.766697
2008-03-20 07:47:53 51°14.174 2°55.368 14.9837 1.03709 6.437712 -1.766697
2008-03-20 07:47:58 51°14.184 2°55.358 14.9841 1.03709 6.437827 -1.731873
2008-03-20 07:48:03 51°14.194 2°55.348 14.9845 1.036987 6.437252 -1.731873
2008-03-20 07:48:08 51°14.203 2°55.337 14.985 1.036987 6.437252 -1.731873
2008-03-20 07:48:13 51°14.213 2°55.326 14.9854 1.036987 6.437252 -1.731873
2008-03-20 07:48:18 51°14.222 2°55.315 14.9864 1.036987 6.437366 -1.731873
2008-03-20 07:48:23 51°14.232 2°55.302 14.9867 1.036987 6.437366 -1.731873
2008-03-20 07:48:28 51°14.242 2°55.289 14.9869 1.036987 6.437366 -1.731873
2008-03-20 07:48:33 51°14.251 2°55.275 14.9875 1.036987 6.437366 -1.731873
2008-03-20 07:48:38 51°14.262 2°55.26 14.9879 1.036987 6.437366 -1.731873
2008-03-20 07:48:43 51°14.271 2°55.244 14.9889 1.036987 6.437366 -1.731873
2008-03-20 07:48:48 51°14.281 2°55.227 14.9889 1.036987 6.43748 -1.731873
2008-03-20 07:48:53 51°14.292 2°55.21 14.9894 1.036987 6.43748 -1.731873
2008-03-20 07:48:58 51°14.302 2°55.193 14.9897 1.036987 6.43748 -1.731873
2008-03-20 07:49:03 51°14.312 2°55.175 14.99 1.036987 6.43748 -1.731873
2008-03-20 07:49:08 51°14.322 2°55.158 14.9905 1.036987 6.437595 -1.731873
2008-03-20 07:49:13 51°14.333 2°55.14 14.9914 1.036884 6.436906 -1.731873
2008-03-20 07:49:18 51°14.343 2°55.121 14.9918 1.036884 6.43702 -1.731873
2008-03-20 07:49:23 51°14.352 2°55.102 14.9921 1.036884 6.43702 -1.731873
2008-03-20 07:49:28 51°14.362 2°55.083 14.9921 1.036884 6.43702 -1.731873
2008-03-20 07:49:33 51°14.371 2°55.063 14.9929 1.036884 6.437249 -1.731873
2008-03-20 07:49:38 51°14.38 2°55.042 14.9933 1.036884 6.437249 -1.731873
2008-03-20 07:49:43 51°14.388 2°55.022 14.9937 1.036884 6.437363 -1.731873
2008-03-20 07:49:48 51°14.397 2°55 14.9939 1.036884 6.437249 -1.731873
2008-03-20 07:49:53 51°14.405 2°54.978 14.9946 1.036884 6.437249 -1.731873
2008-03-20 07:49:58 51°14.413 2°54.955 14.9945 1.036884 6.437363 -1.731873
2008-03-20 07:50:03 51°14.421 2°54.932 14.9951 1.036884 6.437249 -1.731873
2008-03-20 07:50:08 51°14.429 2°54.91 14.9954 1.036781 6.436674 -1.731873
2008-03-20 07:50:13 51°14.437 2°54.886 14.9959 1.036884 6.437363 -1.731873
2008-03-20 07:50:18 51°14.445 2°54.863 14.9964 1.036884 6.437478 -1.731873
2008-03-20 07:50:23 51°14.453 2°54.839 14.9972 1.036884 6.437478 -1.731873
2008-03-20 07:50:28 51°14.46 2°54.814 14.9974 1.036884 6.437592 -1.731873
2008-03-20 07:50:33 51°14.467 2°54.789 14.9977 1.036884 6.437707 -1.731873
2008-03-20 07:50:38 51°14.474 2°54.764 14.9981 1.036781 6.437017 -1.731873
2008-03-20 07:50:43 51°14.481 2°54.738 14.9985 1.036781 6.437017 -1.731873
2008-03-20 07:50:48 51°14.488 2°54.713 14.9995 1.036781 6.437132 -1.731873
2008-03-20 07:50:53 51°14.494 2°54.687 14.9991 1.036781 6.437132 -1.731873
2008-03-20 07:50:58 51°14.501 2°54.662 14.9999 1.036781 6.437132 -1.766697
2008-03-20 07:51:03 51°14.507 2°54.636 15.0002 1.036781 6.437132 -1.731873
2008-03-20 07:51:08 51°14.513 2°54.611 15.0011 1.036781 6.437017 -1.766697
2008-03-20 07:51:13 51°14.519 2°54.585 15.0016 1.036781 6.437132 -1.731873
2008-03-20 07:51:18 51°14.526 2°54.559 15.0017 1.036781 6.437132 -1.731873
2008-03-20 07:51:23 51°14.532 2°54.534 15.0019 1.036781 6.437132 -1.731873
2008-03-20 07:51:28 51°14.539 2°54.508 15.0028 1.036678 6.436442 -1.731873
2008-03-20 07:51:33 51°14.545 2°54.483 15.0031 1.036781 6.437246 -1.731873
2008-03-20 07:51:38 51°14.551 2°54.457 15.0037 1.036678 6.436671 -1.731873
2008-03-20 07:51:43 51°14.558 2°54.432 15.0042 1.036781 6.437475 -1.731873
2008-03-20 07:51:48 51°14.564 2°54.406 15.0044 1.036678 6.436671 -1.766697
2008-03-20 07:51:53 51°14.571 2°54.38 15.0051 1.036678 6.436671 -1.766697
2008-03-20 07:51:58 51°14.577 2°54.355 15.0055 1.036678 6.436785 -1.731873
2008-03-20 07:52:03 51°14.584 2°54.329 15.006 1.036678 6.436785 -1.731873
2008-03-20 07:52:08 51°14.591 2°54.303 15.0065 1.036678 6.436785 -1.766697
2008-03-20 07:52:13 51°14.598 2°54.278 15.0074 1.036678 6.4369 -1.731873
2008-03-20 07:52:18 51°14.604 2°54.252 15.008 1.036678 6.4369 -1.731873
2008-03-20 07:52:23 51°14.611 2°54.226 15.0081 1.036678 6.4369 -1.731873
2008-03-20 07:52:28 51°14.617 2°54.201 15.0088 1.036678 6.437129 -1.731873
2008-03-20 07:52:33 51°14.624 2°54.175 15.0096 1.036678 6.437129 -1.731873
2008-03-20 07:52:38 51°14.63 2°54.149 15.0101 1.036678 6.437014 -1.731873
2008-03-20 07:52:43 51°14.637 2°54.123 15.0102 1.036575 6.436439 -1.731873
2008-03-20 07:52:48 51°14.642 2°54.098 15.0114 1.036678 6.437243 -1.731873
2008-03-20 07:52:53 51°14.646 2°54.071 15.0121 1.036678 6.437243 -1.731873
2008-03-20 07:52:58 51°14.65 2°54.044 15.0117 1.036678 6.437358 -1.697049
2008-03-20 07:53:03 51°14.655 2°54.017 15.0128 1.036678 6.437129 -1.766697
2008-03-20 07:53:08 51°14.659 2°53.99 15.0132 1.036575 6.436668 -1.731873
2008-03-20 07:53:13 51°14.664 2°53.962 15.0138 1.036575 6.436554 -1.731873
2008-03-20 07:53:18 51°14.667 2°53.935 15.0143 1.036575 6.436554 -1.731873
2008-03-20 07:53:23 51°14.672 2°53.908 15.015 1.036575 6.436554 -1.731873
2008-03-20 07:53:28 51°14.676 2°53.88 15.0152 1.036575 6.436668 -1.731873
2008-03-20 07:53:33 51°14.68 2°53.854 15.0161 1.036678 6.437243 -1.731873
2008-03-20 07:53:38 51°14.684 2°53.827 15.0162 1.036575 6.436783 -1.731873
2008-03-20 07:53:43 51°14.688 2°53.8 15.017 1.036575 6.436897 -1.731873
2008-03-20 07:53:48 51°14.692 2°53.774 15.0174 1.036575 6.436897 -1.731873
2008-03-20 07:53:53 51°14.696 2°53.747 15.0182 1.036575 6.436897 -1.731873
2008-03-20 07:53:58 51°14.7 2°53.72 15.0182 1.036575 6.437012 -1.731873
2008-03-20 07:54:03 51°14.705 2°53.694 15.0189 1.036575 6.437012 -1.731873
2008-03-20 07:54:08 51°14.708 2°53.667 15.0197 1.036472 6.436208 -1.766697
2008-03-20 07:54:13 51°14.71 2°53.639 15.0204 1.036472 6.436551 -1.731873
2008-03-20 07:54:18 51°14.711 2°53.612 15.0203 1.036575 6.437241 -1.731873
2008-03-20 07:54:23 51°14.713 2°53.584 15.0206 1.036575 6.437241 -1.731873
2008-03-20 07:54:28 51°14.715 2°53.556 15.0215 1.036472 6.436436 -1.731873
2008-03-20 07:54:33 51°14.716 2°53.529 15.0219 1.036472 6.436436 -1.731873
2008-03-20 07:54:38 51°14.718 2°53.501 15.0231 1.036472 6.436436 -1.731873
2008-03-20 07:54:43 51°14.719 2°53.473 15.023 1.036472 6.436551 -1.731873
2008-03-20 07:54:48 51°14.721 2°53.445 15.024 1.036472 6.436665 -1.731873
2008-03-20 07:54:53 51°14.721 2°53.417 15.0241 1.036472 6.436665 -1.731873
2008-03-20 07:54:58 51°14.723 2°53.388 15.0245 1.036472 6.436551 -1.766697
2008-03-20 07:55:03 51°14.724 2°53.361 15.0249 1.036472 6.436665 -1.731873
2008-03-20 07:55:08 51°14.726 2°53.333 15.0254 1.036472 6.436665 -1.731873
2008-03-20 07:55:13 51°14.727 2°53.305 15.0261 1.036472 6.43678 -1.731873
2008-03-20 07:55:18 51°14.729 2°53.277 15.0265 1.036369 6.436205 -1.731873
2008-03-20 07:55:23 51°14.731 2°53.25 15.0272 1.036369 6.436205 -1.731873
2008-03-20 07:55:28 51°14.732 2°53.222 15.028 1.036472 6.436894 -1.731873
2008-03-20 07:55:33 51°14.733 2°53.194 15.0283 1.036369 6.436205 -1.766697
2008-03-20 07:55:38 51°14.735 2°53.166 15.0285 1.036472 6.437009 -1.731873
2008-03-20 07:55:43 51°14.736 2°53.138 15.0291 1.036369 6.436205 -1.766697
2008-03-20 07:55:48 51°14.738 2°53.111 15.0299 1.036369 6.436319 -1.731873
2008-03-20 07:55:53 51°14.74 2°53.082 15.0303 1.036369 6.436319 -1.731873
2008-03-20 07:55:58 51°14.741 2°53.055 15.0309 1.036369 6.436319 -1.731873
2008-03-20 07:56:03 51°14.743 2°53.027 15.0312 1.036369 6.436434 -1.731873
2008-03-20 07:56:08 51°14.744 2°52.999 15.0319 1.036369 6.436434 -1.766697
2008-03-20 07:56:13 51°14.745 2°52.97 15.0326 1.036369 6.436548 -1.731873
2008-03-20 07:56:18 51°14.747 2°52.942 15.0332 1.036369 6.436663 -1.731873
2008-03-20 07:56:23 51°14.748 2°52.914 15.0334 1.036369 6.436663 -1.731873
2008-03-20 07:56:28 51°14.75 2°52.886 15.0342 1.036369 6.436777 -1.731873
2008-03-20 07:56:33 51°14.75 2°52.858 15.0346 1.036369 6.436892 -1.731873
2008-03-20 07:56:38 51°14.751 2°52.83 15.0355 1.036369 6.436892 -1.766697
2008-03-20 07:56:43 51°14.752 2°52.801 15.0362 1.036369 6.436892 -1.731873
2008-03-20 07:56:48 51°14.753 2°52.773 15.036 1.036266 6.436316 -1.731873
2008-03-20 07:56:53 51°14.754 2°52.745 15.0372 1.036266 6.436316 -1.731873
2008-03-20 07:56:58 51°14.755 2°52.716 15.0381 1.036266 6.436202 -1.731873
2008-03-20 07:57:03 51°14.756 2°52.688 15.0386 1.036266 6.436316 -1.766697
2008-03-20 07:57:08 51°14.757 2°52.66 15.0391 1.036266 6.436431 -1.697049
2008-03-20 07:57:13 51°14.758 2°52.631 15.0399 1.036266 6.436431 -1.731873
2008-03-20 07:57:18 51°14.759 2°52.603 15.0405 1.036266 6.436545 -1.731873
2008-03-20 07:57:23 51°14.76 2°52.574 15.0408 1.036266 6.436545 -1.731873
2008-03-20 07:57:28 51°14.76 2°52.546 15.0414 1.036266 6.436545 -1.766697
2008-03-20 07:57:33 51°14.761 2°52.518 15.0421 1.036163 6.43597 -1.766697
2008-03-20 07:57:38 51°14.763 2°52.489 15.0428 1.036266 6.43666 -1.731873
2008-03-20 07:57:43 51°14.764 2°52.461 15.043 1.036266 6.43666 -1.731873
2008-03-20 07:57:48 51°14.766 2°52.433 15.0442 1.036266 6.436774 -1.731873
2008-03-20 07:57:53 51°14.767 2°52.404 15.0443 1.036266 6.436774 -1.731873
2008-03-20 07:57:58 51°14.769 2°52.376 15.0451 1.036163 6.43597 -1.731873
2008-03-20 07:58:03 51°14.771 2°52.348 15.0457 1.036163 6.436199 -1.731873
2008-03-20 07:58:08 51°14.772 2°52.319 15.0468 1.036266 6.436774 -1.731873
2008-03-20 07:58:13 51°14.773 2°52.29 15.0474 1.036266 6.437003 -1.662225
2008-03-20 07:58:18 51°14.774 2°52.262 15.0479 1.036163 6.436085 -1.731873
2008-03-20 07:58:23 51°14.775 2°52.234 15.0484 1.036163 6.436085 -1.731873
2008-03-20 07:58:28 51°14.776 2°52.206 15.0493 1.03606 6.433335 -1.731873
2008-03-20 07:58:33 51°14.777 2°52.177 15.0498 1.035957 6.43013 -1.662225
2008-03-20 07:58:38 51°14.778 2°52.149 15.0505 1.036163 6.433109 -1.766697
2008-03-20 07:58:43 51°14.779 2°52.12 15.051 1.036163 6.432309 -1.766697
2008-03-20 07:58:48 51°14.78 2°52.092 15.0518 1.036163 6.433452 -1.766697
2008-03-20 07:58:53 51°14.781 2°52.063 15.0524 1.036163 6.433452 -1.766697
2008-03-20 07:58:58 51°14.782 2°52.035 15.0532 1.03606 6.435051 -1.766697
2008-03-20 07:59:03 51°14.783 2°52.006 15.0536 1.03606 6.438602 -1.766697
2008-03-20 07:59:08 51°14.784 2°51.978 15.0543 1.035957 6.442041 -1.766697
2008-03-20 07:59:13 51°14.785 2°51.949 15.0552 1.035957 6.446635 -1.766697
2008-03-20 07:59:18 51°14.786 2°51.92 15.0557 1.035957 6.450201 -1.766697
2008-03-20 07:59:23 51°14.787 2°51.892 15.0562 1.035957 6.450201 -1.766697
2008-03-20 07:59:28 51°14.787 2°51.863 15.0568 1.035957 6.452504 -1.766697
2008-03-20 07:59:33 51°14.788 2°51.834 15.0576 1.035957 6.45331 -1.766697
2008-03-20 07:59:38 51°14.789 2°51.805 15.0582 1.035957 6.453541 -1.766697
2008-03-20 07:59:43 51°14.79 2°51.777 15.059 1.035854 6.452618 -1.766697
2008-03-20 07:59:48 51°14.791 2°51.748 15.0601 1.035854 6.45331 -1.766697
2008-03-20 07:59:53 51°14.792 2°51.72 15.0607 1.035854 6.45331 -1.766697
2008-03-20 07:59:58 51°14.793 2°51.691 15.0612 1.035854 6.454116 -1.766697
2008-03-20 08:00:03 51°14.794 2°51.662 15.0616 1.035751 6.454577 -1.766697
2008-03-20 08:00:08 51°14.795 2°51.633 15.0629 1.035751 6.4555 -1.766697
2008-03-20 08:00:13 51°14.796 2°51.604 15.0632 1.035751 6.456077 -1.766697
2008-03-20 08:00:18 51°14.797 2°51.575 15.0637 1.035648 6.4555 -1.766697
2008-03-20 08:00:23 51°14.798 2°51.546 15.0646 1.035648 6.4555 -1.766697
2008-03-20 08:00:28 51°14.799 2°51.517 15.0653 1.035648 6.455269 -1.766697
2008-03-20 08:00:33 51°14.8 2°51.488 15.0659 1.035648 6.454692 -1.766697
2008-03-20 08:00:38 51°14.801 2°51.458 15.0668 1.035648 6.454001 -1.766697
2008-03-20 08:00:43 51°14.801 2°51.429 15.0673 1.035648 6.453424 -1.766697
2008-03-20 08:00:48 51°14.803 2°51.4 15.0682 1.035545 6.452156 -1.766697
2008-03-20 08:00:53 51°14.803 2°51.37 15.0687 1.035545 6.452156 -1.766697
2008-03-20 08:00:58 51°14.805 2°51.341 15.0694 1.035545 6.452156 -1.766697
2008-03-20 08:01:03 51°14.806 2°51.312 15.07 1.035545 6.452386 -1.766697
2008-03-20 08:01:08 51°14.807 2°51.283 15.0707 1.035545 6.452617 -1.766697
2008-03-20 08:01:13 51°14.808 2°51.253 15.0716 1.03802 6.507965 -1.766697
2008-03-20 08:01:18 51°14.809 2°51.224 15.0721 0.973289 6.101017 -1.488105
2008-03-20 08:01:23 51°14.811 2°51.195 15.0729 0.973289 6.101017 -1.488105
2008-03-20 08:01:28 51°14.812 2°51.165 15.0734 0.637699 3.929475 -1.453281
2008-03-20 08:01:33 51°14.813 2°51.136 15.0742 0.504528 3.07574 -1.488105
2008-03-20 08:01:38 51°14.814 2°51.107 15.0747 0.375094 2.272951 -1.383633
2008-03-20 08:01:43 51°14.816 2°51.077 15.0759 0.362842 2.225912 -1.557753
2008-03-20 08:01:48 51°14.817 2°51.048 15.0762 0.374889 2.305554 -1.766697
2008-03-20 08:01:53 51°14.818 2°51.019 15.0769 0.374889 2.305554 -1.766697
2008-03-20 08:01:58 51°14.819 2°50.989 15.0771 0.39023 2.415345 -1.766697
2008-03-20 08:02:03 51°14.82 2°50.96 15.0784 0.394762 2.494155 -1.766697
2008-03-20 08:02:08 51°14.821 2°50.931 15.0785 0.382921 2.441657 -1.766697
2008-03-20 08:02:13 51°14.822 2°50.901 15.0795 0.366551 2.346263 -1.766697
2008-03-20 08:02:18 51°14.823 2°50.872 15.0802 0.351828 2.25258 -1.766697
2008-03-20 08:02:23 51°14.824 2°50.843 15.0813 0.351828 2.25258 -1.766697
2008-03-20 08:02:28 51°14.825 2°50.814 15.0812 0.342562 2.191296 -1.766697
2008-03-20 08:02:33 51°14.826 2°50.784 15.0826 0.333811 2.127964 -1.766697
2008-03-20 08:02:38 51°14.827 2°50.755 15.0825 0.328457 2.090129 -1.766697
2008-03-20 08:02:43 51°14.829 2°50.726 15.0836 0.32125 2.041814 -1.766697
2008-03-20 08:02:48 51°14.83 2°50.697 15.0842 0.314765 1.99745 -1.766697
2008-03-20 08:02:53 51°14.831 2°50.667 15.0851 0.314765 1.99745 -1.766697
2008-03-20 08:02:58 51°14.832 2°50.638 15.0858 0.307146 1.945199 -1.766697
2008-03-20 08:03:03 51°14.833 2°50.608 15.086 0.299116 1.888644 -1.766697
2008-03-20 08:03:08 51°14.835 2°50.579 15.0873 0.29016 1.826738 -1.766697
2008-03-20 08:03:13 51°14.836 2°50.55 15.0879 0.281306 1.768578 -1.766697
2008-03-20 08:03:18 51°14.837 2°50.52 15.0889 0.273688 1.717192 -1.766697
2008-03-20 08:03:23 51°14.837 2°50.49 15.0893 0.273688 1.717192 -1.766697
2008-03-20 08:03:28 51°14.838 2°50.461 15.0903 0.2671 1.671966 -1.766697
2008-03-20 08:03:33 51°14.838 2°50.431 15.0906 0.261232 1.63039 -1.766697
2008-03-20 08:03:38 51°14.838 2°50.402 15.0915 0.256497 1.598174 -1.766697
2008-03-20 08:03:43 51°14.839 2°50.372 15.0926 0.251659 1.566327 -1.766697
2008-03-20 08:03:48 51°14.839 2°50.343 15.0931 0.246821 1.534067 -1.766697
2008-03-20 08:03:53 51°14.839 2°50.313 15.0933 0.246821 1.534067 -1.766697
2008-03-20 08:03:58 51°14.839 2°50.283 15.0943 0.242188 1.502416 -1.766697
2008-03-20 08:04:03 51°14.84 2°50.253 15.0951 0.237041 1.467846 -1.766697
2008-03-20 08:04:08 51°14.84 2°50.224 15.0964 0.2321 1.43457 -1.766697
2008-03-20 08:04:13 51°14.839 2°50.194 15.0965 0.227056 1.398509 -1.766697
2008-03-20 08:04:18 51°14.84 2°50.164 15.0974 0.221807 1.362754 -1.766697
2008-03-20 08:04:23 51°14.84 2°50.135 15.0983 0.221807 1.362754 -1.766697
2008-03-20 08:04:28 51°14.84 2°50.105 15.0984 0.217998 1.337949 -1.766697
2008-03-20 08:04:33 51°14.841 2°50.075 15.0999 0.214498 1.315692 -1.766697
2008-03-20 08:04:38 51°14.841 2°50.046 15.1 0.210998 1.293014 -1.766697
2008-03-20 08:04:43 51°14.842 2°50.016 15.1013 0.207602 1.271103 -1.766697
2008-03-20 08:04:48 51°14.842 2°49.987 15.1023 0.205028 1.254076 -1.766697
2008-03-20 08:04:53 51°14.842 2°49.958 15.1027 0.205028 1.254076 -1.766697
2008-03-20 08:04:58 51°14.843 2°49.928 15.1037 0.202558 1.237493 -1.766697
2008-03-20 08:05:03 51°14.843 2°49.899 15.1042 0.200087 1.221278 -1.766697
2008-03-20 08:05:08 51°14.844 2°49.869 15.1053 0.197514 1.204543 -1.766697
2008-03-20 08:05:13 51°14.844 2°49.84 15.1059 0.195353 1.190537 -1.766697
2008-03-20 08:05:18 51°14.844 2°49.811 15.1067 0.193191 1.176499 -1.766697
2008-03-20 08:05:23 51°14.845 2°49.782 15.1073 0.193191 1.176499 -1.766697
2008-03-20 08:05:28 51°14.845 2°49.753 15.1081 0.191441 1.164996 -1.766697
2008-03-20 08:05:33 51°14.846 2°49.724 15.109 0.189383 1.151441 -1.766697
2008-03-20 08:05:38 51°14.846 2°49.695 15.11 0.187736 1.140468 -1.766697
2008-03-20 08:05:43 51°14.846 2°49.666 15.1104 0.185883 1.128195 -1.766697
2008-03-20 08:05:48 51°14.846 2°49.637 15.1112 0.184236 1.117406 -1.766697
2008-03-20 08:05:53 51°14.847 2°49.608 15.1124 0.184236 1.117406 -1.766697
2008-03-20 08:05:58 51°14.847 2°49.579 15.1128 0.182692 1.107392 -1.766697
2008-03-20 08:06:03 51°14.848 2°49.55 15.1135 0.181148 1.09743 -1.766697
2008-03-20 08:06:08 51°14.848 2°49.521 15.1145 0.179707 1.088173 -1.766697
2008-03-20 08:06:13 51°14.848 2°49.492 15.1149 0.178575 1.080949 -1.766697
2008-03-20 08:06:18 51°14.849 2°49.463 15.1157 0.177237 1.072567 -1.766697
2008-03-20 08:06:23 51°14.85 2°49.434 15.1175 0.177237 1.072567 -1.766697
2008-03-20 08:06:28 51°14.85 2°49.406 15.1171 0.176105 1.065266 -1.766697
2008-03-20 08:06:33 51°14.851 2°49.377 15.119 0.175281 1.060221 -1.766697
2008-03-20 08:06:38 51°14.851 2°49.348 15.119 0.174149 1.052761 -1.766697
2008-03-20 08:06:43 51°14.852 2°49.319 15.1198 0.17312 1.046145 -1.766697
2008-03-20 08:06:48 51°14.853 2°49.29 15.1208 0.172296 1.040961 -1.766697
2008-03-20 08:06:53 51°14.853 2°49.261 15.1211 0.172296 1.040961 -1.766697
2008-03-20 08:06:58 51°14.854 2°49.232 15.1226 0.171164 1.03386 -1.766697
2008-03-20 08:07:03 51°14.853 2°49.203 15.123 0.170135 1.027433 -1.766697
2008-03-20 08:07:08 51°14.854 2°49.174 15.1243 0.169414 1.023085 -1.766697
2008-03-20 08:07:13 51°14.854 2°49.145 15.1242 0.168694 1.018657 -1.766697
2008-03-20 08:07:18 51°14.855 2°49.117 15.126 0.167562 1.011461 -1.766697
2008-03-20 08:07:23 51°14.855 2°49.088 15.1259 0.167562 1.011461 -1.766697
2008-03-20 08:07:28 51°14.856 2°49.059 15.1272 0.166635 1.005553 -1.766697
2008-03-20 08:07:33 51°14.856 2°49.03 15.1276 0.165812 1.000221 -1.766697
2008-03-20 08:07:38 51°14.857 2°49.001 15.1286 0.164886 0.99426 -1.766697
2008-03-20 08:07:43 51°14.856 2°48.972 15.1291 0.164062 0.988992 -1.766697
2008-03-20 08:07:48 51°14.857 2°48.944 15.1297 0.163445 0.98497 -1.766697
2008-03-20 08:07:53 51°14.856 2°48.915 15.1313 0.163445 0.98497 -1.766697
2008-03-20 08:07:58 51°14.856 2°48.886 15.1316 0.162518 0.978922 -1.766697
2008-03-20 08:08:03 51°14.855 2°48.857 15.1324 0.161798 0.974197 -1.766697
2008-03-20 08:08:08 51°14.854 2°48.829 15.1334 0.161386 0.971502 -1.766697
2008-03-20 08:08:13 51°14.853 2°48.8 15.1332 0.160769 0.967715 -1.766697
2008-03-20 08:08:18 51°14.853 2°48.771 15.1349 0.159945 0.962667 -1.766697
2008-03-20 08:08:23 51°14.852 2°48.743 15.1353 0.159945 0.962667 -1.766697
2008-03-20 08:08:28 51°14.851 2°48.714 15.1355 0.15943 0.959699 -1.766697
2008-03-20 08:08:33 51°14.85 2°48.686 15.1373 0.158916 0.956524 -1.766697
2008-03-20 08:08:38 51°14.848 2°48.658 15.1378 0.158607 0.954761 -1.766697
2008-03-20 08:08:43 51°14.846 2°48.629 15.1383 0.15799 0.950899 -1.766697
2008-03-20 08:08:48 51°14.844 2°48.601 15.1395 0.157681 0.94908 -1.766697
2008-03-20 08:08:53 51°14.842 2°48.573 15.1389 0.157681 0.94908 -1.766697
2008-03-20 08:08:58 51°14.841 2°48.545 15.1408 0.157063 0.945219 -1.766697
2008-03-20 08:09:03 51°14.839 2°48.516 15.1413 0.156652 0.942657 -1.766697
2008-03-20 08:09:08 51°14.837 2°48.488 15.1409 0.15624 0.940059 -1.766697
2008-03-20 08:09:13 51°14.836 2°48.46 15.1423 0.155725 0.936794 -1.766697
2008-03-20 08:09:18 51°14.835 2°48.432 15.1443 0.155416 0.934737 -1.766697
2008-03-20 08:09:23 51°14.832 2°48.404 15.1434 0.155416 0.934737 -1.766697
2008-03-20 08:09:28 51°14.832 2°48.376 15.1449 0.155005 0.932068 -1.766697
2008-03-20 08:09:33 51°14.83 2°48.347 15.1451 0.154696 0.929939 -1.766697
2008-03-20 08:09:38 51°14.828 2°48.319 15.1456 0.154284 0.927218 -1.766697
2008-03-20 08:09:43 51°14.827 2°48.29 15.1469 0.153873 0.924461 -1.766697
2008-03-20 08:09:48 51°14.824 2°48.262 15.1471 0.153564 0.9223 -1.766697
2008-03-20 08:09:53 51°14.823 2°48.234 15.1478 0.153564 0.9223 -1.766697
2008-03-20 08:09:58 51°14.822 2°48.205 15.1486 0.153152 0.919493 -1.766697
2008-03-20 08:10:03 51°14.82 2°48.177 15.1504 0.152946 0.917929 -1.766697
2008-03-20 08:10:08 51°14.818 2°48.149 15.1497 0.152637 0.915807 -1.766697
2008-03-20 08:10:13 51°14.817 2°48.12 15.1509 0.152329 0.913759 -1.766697
2008-03-20 08:10:18 51°14.816 2°48.092 15.1517 0.152123 0.912464 -1.766697
2008-03-20 08:10:23 51°14.814 2°48.063 15.1524 0.152123 0.912464 -1.766697
2008-03-20 08:10:28 51°14.813 2°48.035 15.1526 0.151917 0.911312 -1.766697
2008-03-20 08:10:33 51°14.812 2°48.007 15.1541 0.151711 0.910159 -1.731873
2008-03-20 08:10:38 51°14.81 2°47.979 15.1539 0.151505 0.909042 -1.766697
2008-03-20 08:10:43 51°14.809 2°47.951 15.1554 0.151196 0.90726 -1.766697
2008-03-20 08:10:48 51°14.808 2°47.922 15.1561 0.150991 0.906036 -1.766697
2008-03-20 08:10:53 51°14.807 2°47.894 15.157 0.150991 0.906036 -1.766697
2008-03-20 08:10:58 51°14.805 2°47.866 15.1576 0.150682 0.904111 -1.766697
2008-03-20 08:11:03 51°14.804 2°47.837 15.1579 0.150579 0.903464 -1.766697
2008-03-20 08:11:08 51°14.803 2°47.809 15.1597 0.15027 0.901487 -1.766697
2008-03-20 08:11:13 51°14.8 2°47.781 15.159 0.150167 0.900805 -1.766697
2008-03-20 08:11:18 51°14.799 2°47.752 15.1604 0.149961 0.89944 -1.766697
2008-03-20 08:11:23 51°14.798 2°47.724 15.1611 0.149961 0.89944 -1.766697
2008-03-20 08:11:28 51°14.796 2°47.696 15.1618 0.149756 0.898076 -1.766697
2008-03-20 08:11:33 51°14.795 2°47.667 15.163 0.14955 0.896695 -1.766697
2008-03-20 08:11:38 51°14.793 2°47.639 15.1635 0.149447 0.895996 -1.766697
2008-03-20 08:11:43 51°14.791 2°47.61 15.1642 0.149241 0.89465 -1.766697
2008-03-20 08:11:48 51°14.79 2°47.582 15.1646 0.149241 0.894616 -1.766697
2008-03-20 08:11:53 51°14.788 2°47.553 15.1658 0.149241 0.894616 -1.766697
2008-03-20 08:11:58 51°14.787 2°47.525 15.1665 0.149035 0.893305 -1.766697
2008-03-20 08:12:03 51°14.785 2°47.496 15.1676 0.148932 0.892659 -1.766697
2008-03-20 08:12:08 51°14.783 2°47.468 15.1675 0.148829 0.892029 -1.766697
2008-03-20 08:12:13 51°14.782 2°47.44 15.1688 0.148829 0.892029 -1.766697
2008-03-20 08:12:18 51°14.78 2°47.412 15.1696 0.148623 0.890702 -1.766697
2008-03-20 08:12:23 51°14.779 2°47.383 15.171 0.148623 0.890702 -1.766697
2008-03-20 08:12:28 51°14.777 2°47.355 15.1704 0.148417 0.889392 -1.766697
2008-03-20 08:12:33 51°14.777 2°47.326 15.1724 0.148315 0.888694 -1.766697
2008-03-20 08:12:38 51°14.774 2°47.298 15.1721 0.148212 0.888013 -1.766697
2008-03-20 08:12:43 51°14.774 2°47.269 15.1734 0.148006 0.886668 -1.766697
2008-03-20 08:12:48 51°14.772 2°47.241 15.1741 0.147903 0.88604 -1.766697
2008-03-20 08:12:53 51°14.77 2°47.212 15.1749 0.147903 0.88604 -1.766697
2008-03-20 08:12:57 51°14.77 2°47.19 15.1765 0.1478 0.885394 -1.766697
2008-03-20 08:13:03 51°14.767 2°47.156 15.1762 0.147697 0.884782 -1.766697
2008-03-20 08:13:08 51°14.766 2°47.128 15.177 0.147594 0.884119 -1.766697
2008-03-20 08:13:13 51°14.765 2°47.1 15.1788 0.147491 0.883455 -1.766697
2008-03-20 08:13:17 51°14.764 2°47.077 15.1789 0.147388 0.88281 -1.766697
2008-03-20 08:13:23 51°14.762 2°47.043 15.1792 0.147388 0.88281 -1.766697
2008-03-20 08:13:28 51°14.762 2°47.015 15.1813 0.147285 0.882078 -1.766697
2008-03-20 08:13:33 51°14.759 2°46.986 15.1807 0.147182 0.881449 -1.766697
2008-03-20 08:13:38 51°14.758 2°46.958 15.1827 0.147182 0.88138 -1.766697
2008-03-20 08:13:42 51°14.755 2°46.935 15.1826 0.147079 0.880717 -1.766697
2008-03-20 08:13:48 51°14.755 2°46.901 15.1838 0.146977 0.880072 -1.766697
2008-03-20 08:13:53 51°14.753 2°46.873 15.1847 0.146977 0.880072 -1.766697
2008-03-20 08:13:58 51°14.752 2°46.845 15.1856 0.146771 0.878729 -1.766697
2008-03-20 08:14:02 51°14.75 2°46.822 15.1863 0.146668 0.878049 -1.766697
2008-03-20 08:14:08 51°14.749 2°46.787 15.1872 0.146565 0.877352 -1.766697
2008-03-20 08:14:13 51°14.747 2°46.759 15.1875 0.146462 0.876673 -1.766697
2008-03-20 08:14:18 51°14.746 2°46.73 15.1882 0.146359 0.875976 -1.766697
2008-03-20 08:14:22 51°14.745 2°46.708 15.1895 0.146359 0.875976 -1.766697
2008-03-20 08:14:28 51°14.743 2°46.674 15.1897 0.146256 0.875365 -1.766697
2008-03-20 08:14:33 51°14.742 2°46.646 15.1913 0.146153 0.874702 -1.766697
2008-03-20 08:14:38 51°14.74 2°46.617 15.1912 0.146153 0.874753 -1.766697
2008-03-20 08:14:43 51°14.74 2°46.589 15.1926 0.145947 0.87348 -1.766697
2008-03-20 08:14:48 51°14.738 2°46.561 15.1934 0.145947 0.87348 -1.766697
2008-03-20 08:14:53 51°14.737 2°46.533 15.1943 0.145947 0.87348 -1.766697
2008-03-20 08:14:57 51°14.736 2°46.51 15.1945 0.145844 0.872817 -1.766697
2008-03-20 08:15:03 51°14.734 2°46.476 15.1959 0.145741 0.872172 -1.766697
2008-03-20 08:15:08 51°14.732 2°46.448 15.1967 0.145741 0.872172 -1.766697
2008-03-20 08:15:13 51°14.731 2°46.42 15.1976 0.145639 0.871527 -1.766697
2008-03-20 08:15:17 51°14.729 2°46.397 15.1973 0.145536 0.870899 -1.766697
2008-03-20 08:15:23 51°14.727 2°46.364 15.1985 0.145536 0.870899 -1.766697
2008-03-20 08:15:28 51°14.726 2°46.335 15.1997 0.145536 0.870899 -1.766697
2008-03-20 08:15:33 51°14.724 2°46.308 15.1998 0.145433 0.87027 -1.766697
2008-03-20 08:15:38 51°14.723 2°46.28 15.2014 0.14533 0.869608 -1.766697
2008-03-20 08:15:42 51°14.721 2°46.257 15.2013 0.14533 0.869625 -1.766697
2008-03-20 08:15:48 51°14.72 2°46.223 15.2026 0.145227 0.868929 -1.766697
2008-03-20 08:15:53 51°14.718 2°46.195 15.2027 0.145227 0.868929 -1.766697
2008-03-20 08:15:58 51°14.717 2°46.167 15.2039 0.145227 0.868963 -1.766697
2008-03-20 08:16:02 51°14.716 2°46.145 15.2049 0.145124 0.868301 -1.766697
2008-03-20 08:16:08 51°14.714 2°46.111 15.2051 0.145124 0.868284 -1.766697
2008-03-20 08:16:13 51°14.712 2°46.083 15.206 0.145021 0.867622 -1.766697
2008-03-20 08:16:18 51°14.712 2°46.054 15.2071 0.145021 0.867622 -1.766697
2008-03-20 08:16:22 51°14.709 2°46.032 15.2073 0.145021 0.867622 -1.766697
2008-03-20 08:16:28 51°14.708 2°45.998 15.2085 0.144918 0.866943 -1.766697
2008-03-20 08:16:33 51°14.706 2°45.97 15.2093 0.144918 0.866943 -1.766697
2008-03-20 08:16:38 51°14.704 2°45.942 15.2098 0.144918 0.866926 -1.731873
2008-03-20 08:16:43 51°14.703 2°45.914 15.2111 0.144815 0.866281 -1.766697
2008-03-20 08:16:48 51°14.701 2°45.886 15.2113 0.144815 0.866265 -1.731873
2008-03-20 08:16:53 51°14.7 2°45.858 15.2127 0.144815 0.866265 -1.731873
2008-03-20 08:16:58 51°14.698 2°45.83 15.2132 0.144712 0.865687 -1.766697
2008-03-20 08:17:03 51°14.697 2°45.802 15.2141 0.144712 0.865704 -1.766697
2008-03-20 08:17:08 51°14.694 2°45.773 15.2138 0.144712 0.865738 -1.766697
2008-03-20 08:17:13 51°14.694 2°45.745 15.2156 0.144609 0.865076 -1.766697
2008-03-20 08:17:17 51°14.693 2°45.722 15.2161 0.144609 0.865076 -1.766697
2008-03-20 08:17:23 51°14.691 2°45.689 15.2169 0.144609 0.865076 -1.766697
2008-03-20 08:17:28 51°14.689 2°45.66 15.2168 0.144506 0.864364 -1.766697
2008-03-20 08:17:33 51°14.688 2°45.631 15.2188 0.144506 0.864279 -1.766697
2008-03-20 08:17:38 51°14.687 2°45.603 15.2191 0.144506 0.864263 -1.766697
2008-03-20 08:17:43 51°14.685 2°45.574 15.2196 0.144403 0.863584 -1.766697
2008-03-20 08:17:48 51°14.684 2°45.546 15.2206 0.144403 0.863635 -1.766697
2008-03-20 08:17:53 51°14.682 2°45.517 15.221 0.144403 0.863635 -1.766697
2008-03-20 08:17:58 51°14.681 2°45.489 15.2224 0.144403 0.863584 -1.766697
2008-03-20 08:18:02 51°14.679 2°45.466 15.2217 0.144403 0.863635 -1.766697
2008-03-20 08:18:08 51°14.679 2°45.432 15.2245 0.144301 0.862956 -1.766697
2008-03-20 08:18:13 51°14.676 2°45.403 15.2238 0.144301 0.863007 -1.766697
2008-03-20 08:18:17 51°14.675 2°45.38 15.2261 0.144198 0.862345 -1.766697
2008-03-20 08:18:22 51°14.673 2°45.351 15.2254 0.144198 0.862345 -1.766697
2008-03-20 08:18:28 51°14.672 2°45.316 15.2274 0.144198 0.862345 -1.766697
2008-03-20 08:18:33 51°14.67 2°45.288 15.2274 0.144095 0.861734 -1.766697
2008-03-20 08:18:38 51°14.669 2°45.259 15.2291 0.144095 0.861717 -1.766697
2008-03-20 08:18:42 51°14.666 2°45.236 15.2285 0.143992 0.861072 -1.766697
2008-03-20 08:18:48 51°14.666 2°45.201 15.2311 0.143992 0.861123 -1.766697
2008-03-20 08:18:53 51°14.663 2°45.173 15.2298 0.143992 0.861123 -1.766697
2008-03-20 08:18:58 51°14.663 2°45.144 15.2321 0.143889 0.860461 -1.766697
2008-03-20 08:19:03 51°14.661 2°45.116 15.2322 0.143889 0.860562 -1.766697
2008-03-20 08:19:08 51°14.66 2°45.087 15.2337 0.143889 0.860629 -1.766697
2008-03-20 08:19:13 51°14.658 2°45.058 15.2339 0.143889 0.860696 -1.766697
2008-03-20 08:19:18 51°14.656 2°45.029 15.235 0.143889 0.860696 -1.766697
2008-03-20 08:19:23 51°14.655 2°45.001 15.2357 0.143889 0.860696 -1.766697
2008-03-20 08:19:28 51°14.653 2°44.972 15.2366 0.143786 0.860001 -1.766697
2008-03-20 08:19:33 51°14.652 2°44.943 15.2378 0.143786 0.859934 -1.766697
2008-03-20 08:19:38 51°14.65 2°44.915 15.2383 0.143786 0.85985 -1.766697
2008-03-20 08:19:43 51°14.649 2°44.886 15.2392 0.143683 0.859122 -1.766697
2008-03-20 08:19:48 51°14.647 2°44.857 15.2397 0.143683 0.859088 -1.766697
2008-03-20 08:19:53 51°14.646 2°44.828 15.2407 0.143683 0.859088 -1.766697
2008-03-20 08:19:58 51°14.644 2°44.799 15.2409 0.14358 0.858427 -1.766697
2008-03-20 08:20:02 51°14.643 2°44.776 15.2418 0.14358 0.858427 -1.766697
2008-03-20 08:20:08 51°14.641 2°44.742 15.2429 0.14358 0.858444 -1.766697
2008-03-20 08:20:13 51°14.64 2°44.713 15.2437 0.143477 0.857799 -1.766697
2008-03-20 08:20:17 51°14.639 2°44.69 15.2445 0.143477 0.857833 -1.766697
2008-03-20 08:20:22 51°14.637 2°44.661 15.2449 0.143477 0.857833 -1.766697
2008-03-20 08:20:28 51°14.636 2°44.627 15.246 0.143374 0.857222 -1.766697
2008-03-20 08:20:33 51°14.633 2°44.598 15.2461 0.143477 0.85795 -1.766697
2008-03-20 08:20:38 51°14.633 2°44.57 15.2476 0.143374 0.857305 -1.766697
2008-03-20 08:20:42 51°14.631 2°44.546 15.248 0.143374 0.857405 -1.766697
2008-03-20 08:20:48 51°14.629 2°44.512 15.2484 0.143374 0.857405 -1.766697
2008-03-20 08:20:53 51°14.628 2°44.483 15.2504 0.143374 0.857405 -1.766697
2008-03-20 08:20:58 51°14.625 2°44.454 15.2498 0.143374 0.857438 -1.766697
2008-03-20 08:21:03 51°14.624 2°44.426 15.251 0.143271 0.85676 -1.766697
2008-03-20 08:21:08 51°14.623 2°44.397 15.2523 0.143271 0.85681 -1.766697
2008-03-20 08:21:13 51°14.62 2°44.368 15.2529 0.143271 0.856794 -1.766697
2008-03-20 08:21:18 51°14.619 2°44.34 15.254 0.143271 0.856794 -1.766697
2008-03-20 08:21:23 51°14.616 2°44.311 15.2537 0.143271 0.856794 -1.766697
2008-03-20 08:21:28 51°14.615 2°44.282 15.2555 0.143168 0.856099 -1.766697
2008-03-20 08:21:33 51°14.613 2°44.254 15.2563 0.143168 0.856099 -1.766697
2008-03-20 08:21:38 51°14.611 2°44.225 15.2564 0.143168 0.856066 -1.766697
2008-03-20 08:21:43 51°14.609 2°44.196 15.2577 0.143168 0.856049 -1.766697
2008-03-20 08:21:48 51°14.607 2°44.167 15.2583 0.143065 0.855371 -1.766697
2008-03-20 08:21:53 51°14.605 2°44.138 15.2591 0.143065 0.855371 -1.766697
2008-03-20 08:21:58 51°14.604 2°44.109 15.2602 0.143065 0.855388 -1.766697
2008-03-20 08:22:03 51°14.602 2°44.081 15.2603 0.143065 0.855421 -1.766697
2008-03-20 08:22:08 51°14.601 2°44.052 15.2619 0.142963 0.85476 -1.766697
2008-03-20 08:22:13 51°14.599 2°44.023 15.2622 0.142963 0.85481 -1.766697
2008-03-20 08:22:17 51°14.598 2°44 15.2631 0.142963 0.854827 -1.766697
2008-03-20 08:22:22 51°14.596 2°43.97 15.264 0.142963 0.854827 -1.766697
2008-03-20 08:22:28 51°14.594 2°43.935 15.2652 0.14286 0.854199 -1.766697
2008-03-20 08:22:33 51°14.592 2°43.906 15.2652 0.14286 0.854199 -1.766697
2008-03-20 08:22:37 51°14.59 2°43.883 15.2659 0.14286 0.854199 -1.766697
2008-03-20 08:22:42 51°14.59 2°43.854 15.2675 0.14286 0.854232 -1.766697
2008-03-20 08:22:47 51°14.586 2°43.825 15.2671 0.14286 0.854249 -1.766697
2008-03-20 08:22:53 51°14.586 2°43.79 15.2692 0.14286 0.854249 -1.766697
2008-03-20 08:22:58 51°14.584 2°43.762 15.2692 0.14286 0.854299 -1.766697
2008-03-20 08:23:02 51°14.583 2°43.739 15.2704 0.142757 0.853671 -1.766697
2008-03-20 08:23:08 51°14.581 2°43.704 15.2717 0.142757 0.853687 -1.766697
2008-03-20 08:23:13 51°14.579 2°43.675 15.2717 0.142757 0.853687 -1.766697
2008-03-20 08:23:18 51°14.578 2°43.646 15.2733 0.142757 0.853671 -1.766697
2008-03-20 08:23:23 51°14.575 2°43.617 15.2735 0.142757 0.853671 -1.766697
2008-03-20 08:23:28 51°14.573 2°43.589 15.2739 0.142757 0.853637 -1.766697
2008-03-20 08:23:33 51°14.571 2°43.56 15.2756 0.142654 0.85296 -1.766697
2008-03-20 08:23:38 51°14.569 2°43.531 15.2764 0.142654 0.85296 -1.766697
2008-03-20 08:23:43 51°14.568 2°43.502 15.2773 0.142654 0.85296 -1.766697
2008-03-20 08:23:48 51°14.566 2°43.473 15.2784 0.142654 0.852943 -1.766697
2008-03-20 08:23:53 51°14.564 2°43.444 15.2788 0.142654 0.852943 -1.766697
2008-03-20 08:23:58 51°14.563 2°43.415 15.2797 0.142654 0.852943 -1.766697
2008-03-20 08:24:03 51°14.561 2°43.386 15.2804 0.142551 0.852298 -1.766697
2008-03-20 08:24:08 51°14.559 2°43.357 15.2811 0.142551 0.852298 -1.766697
2008-03-20 08:24:13 51°14.557 2°43.328 15.2817 0.142551 0.852315 -1.766697
2008-03-20 08:24:17 51°14.556 2°43.304 15.283 0.142551 0.852298 -1.766697
2008-03-20 08:24:23 51°14.553 2°43.269 15.2836 0.142551 0.852298 -1.766697
2008-03-20 08:24:28 51°14.551 2°43.24 15.2844 0.142551 0.852332 -1.766697
2008-03-20 08:24:33 51°14.55 2°43.211 15.2852 0.142448 0.851687 -1.766697
2008-03-20 08:24:37 51°14.549 2°43.188 15.2858 0.142448 0.851687 -1.766697
2008-03-20 08:24:42 51°14.547 2°43.159 15.2869 0.142448 0.851704 -1.766697
2008-03-20 08:24:48 51°14.546 2°43.124 15.2881 0.142448 0.851737 -1.766697
2008-03-20 08:24:53 51°14.543 2°43.095 15.2881 0.142448 0.851737 -1.766697
2008-03-20 08:24:58 51°14.543 2°43.066 15.2898 0.142448 0.851687 -1.766697
2008-03-20 08:25:02 51°14.541 2°43.043 15.2901 0.142448 0.85172 -1.766697
2008-03-20 08:25:08 51°14.539 2°43.008 15.2909 0.142345 0.851026 -1.766697
2008-03-20 08:25:13 51°14.538 2°42.979 15.2918 0.142345 0.851043 -1.766697
2008-03-20 08:25:18 51°14.536 2°42.95 15.2929 0.142345 0.851026 -1.766697
2008-03-20 08:25:23 51°14.534 2°42.921 15.2935 0.142345 0.851026 -1.766697
2008-03-20 08:25:28 51°14.533 2°42.892 15.2945 0.142345 0.85101 -1.766697
2008-03-20 08:25:33 51°14.531 2°42.863 15.2953 0.142345 0.851026 -1.766697
2008-03-20 08:25:38 51°14.529 2°42.834 15.2966 0.142242 0.850382 -1.766697
2008-03-20 08:25:43 51°14.527 2°42.804 15.2967 0.142242 0.850382 -1.766697
2008-03-20 08:25:48 51°14.526 2°42.775 15.298 0.142242 0.850398 -1.766697
2008-03-20 08:25:53 51°14.524 2°42.746 15.2983 0.142242 0.850398 -1.766697
2008-03-20 08:25:58 51°14.523 2°42.717 15.2994 0.142242 0.850382 -1.766697
2008-03-20 08:26:03 51°14.521 2°42.688 15.2998 0.142242 0.850382 -1.766697
2008-03-20 08:26:08 51°14.519 2°42.659 15.3009 0.142139 0.849737 -1.766697
2008-03-20 08:26:13 51°14.517 2°42.63 15.3015 0.142139 0.849737 -1.766697
2008-03-20 08:26:18 51°14.516 2°42.601 15.3026 0.142139 0.849737 -1.766697
2008-03-20 08:26:23 51°14.514 2°42.572 15.3031 0.142139 0.849737 -1.766697
2008-03-20 08:26:28 51°14.512 2°42.543 15.3036 0.142139 0.849737 -1.766697
2008-03-20 08:26:33 51°14.511 2°42.515 15.3051 0.142139 0.849721 -1.766697
2008-03-20 08:26:37 51°14.509 2°42.492 15.3052 0.142139 0.849737 -1.766697
2008-03-20 08:26:43 51°14.507 2°42.458 15.3064 0.142139 0.849737 -1.766697
2008-03-20 08:26:48 51°14.505 2°42.429 15.3062 0.142139 0.849721 -1.766697
2008-03-20 08:26:53 51°14.504 2°42.4 15.3081 0.142139 0.849721 -1.766697
2008-03-20 08:26:57 51°14.502 2°42.378 15.3087 0.142036 0.849109 -1.766697
2008-03-20 08:27:03 51°14.499 2°42.344 15.3091 0.142036 0.849109 -1.731873
2008-03-20 08:27:08 51°14.499 2°42.315 15.3105 0.142036 0.849109 -1.766697
2008-03-20 08:27:13 51°14.496 2°42.287 15.3108 0.142036 0.849093 -1.766697
2008-03-20 08:27:18 51°14.494 2°42.259 15.3114 0.142036 0.849143 -1.766697
2008-03-20 08:27:22 51°14.493 2°42.236 15.3124 0.142036 0.849143 -1.766697
2008-03-20 08:27:28 51°14.49 2°42.202 15.3131 0.142036 0.849143 -1.766697
2008-03-20 08:27:33 51°14.489 2°42.174 15.314 0.142036 0.849143 -1.766697
2008-03-20 08:27:38 51°14.486 2°42.146 15.3152 0.142036 0.849176 -1.766697
2008-03-20 08:27:43 51°14.484 2°42.117 15.3156 0.141933 0.848515 -1.766697
2008-03-20 08:27:48 51°14.482 2°42.089 15.3173 0.141933 0.848515 -1.766697
2008-03-20 08:27:53 51°14.479 2°42.061 15.3173 0.141933 0.848515 -1.766697
2008-03-20 08:27:58 51°14.478 2°42.033 15.318 0.141933 0.848515 -1.766697
2008-03-20 08:28:02 51°14.476 2°42.01 15.3189 0.141933 0.848531 -1.766697
2008-03-20 08:28:08 51°14.475 2°41.976 15.3203 0.141933 0.848515 -1.766697
2008-03-20 08:28:13 51°14.472 2°41.948 15.3198 0.141933 0.848548 -1.766697
2008-03-20 08:28:18 51°14.471 2°41.919 15.3215 0.141933 0.848548 -1.766697
2008-03-20 08:28:23 51°14.468 2°41.89 15.3216 0.141933 0.848548 -1.766697
2008-03-20 08:28:28 51°14.467 2°41.862 15.3241 0.14183 0.847854 -1.766697
2008-03-20 08:28:33 51°14.464 2°41.834 15.3232 0.14183 0.84792 -1.766697
2008-03-20 08:28:37 51°14.463 2°41.811 15.3247 0.14183 0.847887 -1.766697
2008-03-20 08:28:43 51°14.46 2°41.777 15.3255 0.14183 0.84787 -1.766697
2008-03-20 08:28:48 51°14.458 2°41.749 15.3267 0.14183 0.847953 -1.766697
2008-03-20 08:28:53 51°14.456 2°41.721 15.3266 0.14183 0.847953 -1.766697
2008-03-20 08:28:57 51°14.456 2°41.698 15.3283 0.14183 0.847903 -1.766697
2008-03-20 08:29:03 51°14.452 2°41.664 15.3283 0.14183 0.847953 -1.766697
2008-03-20 08:29:08 51°14.451 2°41.636 15.3299 0.14183 0.847903 -1.766697
2008-03-20 08:29:13 51°14.448 2°41.608 15.3291 0.141727 0.847259 -1.766697
2008-03-20 08:29:18 51°14.447 2°41.58 15.3313 0.14183 0.847936 -1.766697
2008-03-20 08:29:23 51°14.444 2°41.552 15.3313 0.14183 0.847936 -1.766697
2008-03-20 08:29:28 51°14.443 2°41.524 15.333 0.14183 0.847837 -1.766697
2008-03-20 08:29:33 51°14.439 2°41.496 15.3327 0.14183 0.847986 -1.766697
2008-03-20 08:29:38 51°14.438 2°41.468 15.3342 0.14183 0.848052 -1.766697
2008-03-20 08:29:43 51°14.436 2°41.44 15.3348 0.14183 0.848085 -1.766697
2008-03-20 08:29:48 51°14.433 2°41.412 15.3358 0.14183 0.848068 -1.766697
2008-03-20 08:29:53 51°14.432 2°41.383 15.3363 0.14183 0.848068 -1.766697
2008-03-20 08:29:58 51°14.431 2°41.355 15.3376 0.141727 0.847325 -1.766697
2008-03-20 08:30:02 51°14.429 2°41.332 15.3386 0.141727 0.847243 -1.766697
2008-03-20 08:30:08 51°14.427 2°41.298 15.3389 0.141727 0.847144 -1.766697
2008-03-20 08:30:13 51°14.425 2°41.27 15.3402 0.141727 0.847144 -1.766697
2008-03-20 08:30:18 51°14.423 2°41.241 15.3409 0.141727 0.847078 -1.766697
2008-03-20 08:30:23 51°14.421 2°41.213 15.3419 0.141727 0.847078 -1.766697
2008-03-20 08:30:28 51°14.419 2°41.185 15.3414 0.141727 0.847226 -1.766697
2008-03-20 08:30:33 51°14.417 2°41.156 15.3442 0.141625 0.846598 -1.766697
2008-03-20 08:30:38 51°14.415 2°41.128 15.3448 0.141625 0.84673 -1.766697
2008-03-20 08:30:43 51°14.412 2°41.1 15.3452 0.141625 0.84678 -1.766697
2008-03-20 08:30:48 51°14.41 2°41.072 15.3453 0.141625 0.846796 -1.766697
2008-03-20 08:30:53 51°14.409 2°41.043 15.3473 0.141625 0.846796 -1.766697
2008-03-20 08:30:57 51°14.407 2°41.02 15.3473 0.141625 0.846829 -1.766697
2008-03-20 08:31:03 51°14.406 2°40.987 15.3489 0.141625 0.84678 -1.766697
2008-03-20 08:31:08 51°14.403 2°40.959 15.3489 0.141625 0.846796 -1.766697
2008-03-20 08:31:13 51°14.401 2°40.93 15.3503 0.141625 0.846763 -1.766697
2008-03-20 08:31:17 51°14.399 2°40.908 15.3504 0.141625 0.846747 -1.766697
2008-03-20 08:31:23 51°14.397 2°40.875 15.3513 0.141625 0.846747 -1.766697
2008-03-20 08:31:28 51°14.396 2°40.846 15.3534 0.141522 0.846069 -1.766697
2008-03-20 08:31:33 51°14.393 2°40.818 15.3524 0.141522 0.846086 -1.766697
2008-03-20 08:31:38 51°14.393 2°40.79 15.3546 0.141522 0.84602 -1.766697
2008-03-20 08:31:42 51°14.391 2°40.768 15.3543 0.141522 0.846102 -1.766697
2008-03-20 08:31:48 51°14.39 2°40.734 15.3564 0.141522 0.846053 -1.766697
2008-03-20 08:31:53 51°14.389 2°40.706 15.3567 0.141522 0.846053 -1.766697
2008-03-20 08:31:58 51°14.387 2°40.677 15.3567 0.141522 0.846119 -1.766697
2008-03-20 08:32:02 51°14.387 2°40.655 15.3591 0.141522 0.846069 -1.766697
2008-03-20 08:32:08 51°14.383 2°40.622 15.3578 0.141522 0.846119 -1.766697
2008-03-20 08:32:13 51°14.383 2°40.593 15.3603 0.141522 0.846102 -1.766697
2008-03-20 08:32:18 51°14.382 2°40.565 15.3605 0.141522 0.846135 -1.766697
2008-03-20 08:32:22 51°14.381 2°40.543 15.3617 0.141522 0.846135 -1.766697
2008-03-20 08:32:28 51°14.379 2°40.509 15.3624 0.141522 0.846135 -1.766697
2008-03-20 08:32:33 51°14.377 2°40.481 15.3632 0.141522 0.846119 -1.766697
2008-03-20 08:32:38 51°14.376 2°40.454 15.3643 0.141522 0.846086 -1.766697
2008-03-20 08:32:43 51°14.374 2°40.426 15.3647 0.141419 0.845441 -1.766697
2008-03-20 08:32:48 51°14.373 2°40.398 15.366 0.141419 0.845425 -1.766697
2008-03-20 08:32:53 51°14.371 2°40.371 15.3663 0.141419 0.845425 -1.766697
2008-03-20 08:32:58 51°14.37 2°40.343 15.3675 0.141419 0.845408 -1.766697
2008-03-20 08:33:03 51°14.368 2°40.315 15.3683 0.141419 0.845425 -1.766697
2008-03-20 08:33:08 51°14.367 2°40.287 15.3693 0.141419 0.845474 -1.766697
2008-03-20 08:33:13 51°14.365 2°40.259 15.3699 0.141419 0.845458 -1.766697
2008-03-20 08:33:17 51°14.364 2°40.237 15.3719 0.141419 0.845524 -1.766697
2008-03-20 08:33:23 51°14.362 2°40.205 15.3713 0.141419 0.845524 -1.766697
2008-03-20 08:33:28 51°14.361 2°40.177 15.3728 0.141419 0.845524 -1.766697
2008-03-20 08:33:33 51°14.359 2°40.149 15.3737 0.141419 0.84554 -1.766697
2008-03-20 08:33:38 51°14.357 2°40.122 15.3736 0.141419 0.84554 -1.766697
2008-03-20 08:33:43 51°14.356 2°40.095 15.3752 0.141419 0.845524 -1.766697
2008-03-20 08:33:48 51°14.354 2°40.067 15.3757 0.141419 0.845507 -1.766697
2008-03-20 08:33:53 51°14.353 2°40.039 15.3777 0.141419 0.845507 -1.766697
2008-03-20 08:33:58 51°14.352 2°40.012 15.3783 0.141316 0.844846 -1.766697
2008-03-20 08:34:02 51°14.349 2°39.99 15.3778 0.141316 0.844863 -1.766697
2008-03-20 08:34:08 51°14.349 2°39.956 15.3798 0.141316 0.84483 -1.766697
2008-03-20 08:34:13 51°14.348 2°39.928 15.3811 0.141316 0.84483 -1.766697
2008-03-20 08:34:18 51°14.346 2°39.9 15.3805 0.141316 0.84483 -1.766697
2008-03-20 08:34:22 51°14.346 2°39.878 15.3831 0.141316 0.84483 -1.766697
2008-03-20 08:34:28 51°14.344 2°39.845 15.383 0.141316 0.844846 -1.766697
2008-03-20 08:34:33 51°14.343 2°39.817 15.3839 0.141316 0.844846 -1.766697
2008-03-20 08:34:38 51°14.341 2°39.79 15.385 0.141316 0.844846 -1.766697
2008-03-20 08:34:43 51°14.34 2°39.762 15.3859 0.141316 0.844879 -1.766697
2008-03-20 08:34:48 51°14.337 2°39.734 15.3863 0.141316 0.844797 -1.766697
2008-03-20 08:34:53 51°14.337 2°39.707 15.3881 0.141316 0.844797 -1.766697
2008-03-20 08:34:58 51°14.334 2°39.679 15.3876 0.141316 0.844912 -1.766697
2008-03-20 08:35:03 51°14.333 2°39.651 15.3892 0.141316 0.844879 -1.766697
2008-03-20 08:35:08 51°14.332 2°39.624 15.3908 0.141316 0.844912 -1.766697
2008-03-20 08:35:13 51°14.329 2°39.597 15.39 0.141316 0.844945 -1.766697
2008-03-20 08:35:18 51°14.329 2°39.569 15.3926 0.141316 0.844863 -1.766697
2008-03-20 08:35:23 51°14.327 2°39.541 15.3927 0.141316 0.844863 -1.766697
2008-03-20 08:35:28 51°14.325 2°39.513 15.3929 0.141316 0.844912 -1.766697
2008-03-20 08:35:33 51°14.323 2°39.486 15.3945 0.141213 0.844218 -1.766697
2008-03-20 08:35:37 51°14.321 2°39.463 15.3946 0.141213 0.844235 -1.766697
2008-03-20 08:35:43 51°14.32 2°39.43 15.3965 0.141213 0.844202 -1.766697
2008-03-20 08:35:48 51°14.318 2°39.402 15.3968 0.141213 0.844235 -1.766697
2008-03-20 08:35:53 51°14.316 2°39.374 15.3976 0.141213 0.844235 -1.766697
2008-03-20 08:35:58 51°14.315 2°39.346 15.3993 0.141213 0.844202 -1.766697
2008-03-20 08:36:03 51°14.312 2°39.319 15.399 0.141213 0.844268 -1.766697
2008-03-20 08:36:08 51°14.311 2°39.291 15.4013 0.141213 0.844235 -1.766697
2008-03-20 08:36:13 51°14.309 2°39.264 15.4008 0.141213 0.844301 -1.766697
2008-03-20 08:36:17 51°14.308 2°39.242 15.402 0.141213 0.844251 -1.766697
2008-03-20 08:36:22 51°14.307 2°39.214 15.4035 0.141213 0.844251 -1.766697
2008-03-20 08:36:28 51°14.305 2°39.181 15.4041 0.141213 0.844268 -1.731873
2008-03-20 08:36:33 51°14.304 2°39.154 15.4043 0.141213 0.844284 -1.766697
2008-03-20 08:36:38 51°14.302 2°39.126 15.4064 0.141213 0.844268 -1.766697
2008-03-20 08:36:42 51°14.3 2°39.104 15.4058 0.141213 0.844284 -1.766697
2008-03-20 08:36:48 51°14.299 2°39.071 15.4079 0.141213 0.844268 -1.766697
2008-03-20 08:36:53 51°14.297 2°39.044 15.4081 0.141213 0.844268 -1.766697
2008-03-20 08:36:58 51°14.295 2°39.016 15.4091 0.141213 0.844268 -1.766697
2008-03-20 08:37:03 51°14.294 2°38.988 15.41 0.141213 0.844251 -1.766697
2008-03-20 08:37:08 51°14.292 2°38.96 15.4109 0.141213 0.844268 -1.766697
2008-03-20 08:37:13 51°14.289 2°38.933 15.4118 0.141213 0.844268 -1.766697
2008-03-20 08:37:18 51°14.286 2°38.905 15.4122 0.141213 0.844268 -1.766697
2008-03-20 08:37:23 51°14.284 2°38.877 15.4135 0.141213 0.844268 -1.766697
2008-03-20 08:37:28 51°14.281 2°38.85 15.4147 0.141213 0.844251 -1.766697
2008-03-20 08:37:33 51°14.278 2°38.823 15.4149 0.141213 0.844268 -1.766697
2008-03-20 08:37:38 51°14.276 2°38.795 15.4161 0.141213 0.844251 -1.766697
2008-03-20 08:37:43 51°14.273 2°38.767 15.4171 0.141213 0.844268 -1.766697
2008-03-20 08:37:48 51°14.27 2°38.739 15.4179 0.14111 0.84364 -1.766697
2008-03-20 08:37:53 51°14.266 2°38.712 15.4191 0.14111 0.84364 -1.766697
2008-03-20 08:37:58 51°14.261 2°38.684 15.4191 0.14111 0.84364 -1.766697
2008-03-20 08:38:03 51°14.258 2°38.656 15.4205 0.14111 0.843591 -1.766697
2008-03-20 08:38:08 51°14.253 2°38.629 15.4215 0.14111 0.843623 -1.766697
2008-03-20 08:38:13 51°14.249 2°38.601 15.4223 0.14111 0.843607 -1.766697
2008-03-20 08:38:17 51°14.246 2°38.578 15.4229 0.14111 0.843607 -1.766697
2008-03-20 08:38:23 51°14.241 2°38.545 15.4245 0.14111 0.843607 -1.766697
2008-03-20 08:38:28 51°14.236 2°38.517 15.4246 0.14111 0.843607 -1.766697
2008-03-20 08:38:33 51°14.233 2°38.489 15.4259 0.14111 0.843607 -1.766697
2008-03-20 08:38:38 51°14.229 2°38.461 15.4265 0.14111 0.84364 -1.766697
2008-03-20 08:38:42 51°14.225 2°38.439 15.427 0.14111 0.843607 -1.766697
2008-03-20 08:38:48 51°14.221 2°38.405 15.4288 0.14111 0.84364 -1.766697
2008-03-20 08:38:53 51°14.215 2°38.377 15.4281 0.14111 0.84364 -1.766697
2008-03-20 08:38:58 51°14.213 2°38.349 15.4306 0.14111 0.843607 -1.766697
2008-03-20 08:39:03 51°14.208 2°38.322 15.4309 0.14111 0.84364 -1.766697
2008-03-20 08:39:08 51°14.204 2°38.294 15.4318 0.14111 0.843607 -1.766697
2008-03-20 08:39:13 51°14.198 2°38.266 15.4314 0.14111 0.843623 -1.766697
2008-03-20 08:39:18 51°14.196 2°38.238 15.434 0.14111 0.843591 -1.766697
2008-03-20 08:39:23 51°14.191 2°38.21 15.4337 0.14111 0.843591 -1.766697
2008-03-20 08:39:28 51°14.188 2°38.182 15.435 0.14111 0.843591 -1.766697
2008-03-20 08:39:33 51°14.184 2°38.155 15.4357 0.14111 0.843607 -1.766697
2008-03-20 08:39:38 51°14.18 2°38.127 15.4367 0.14111 0.843591 -1.766697
2008-03-20 08:39:43 51°14.177 2°38.099 15.4382 0.14111 0.843623 -1.766697
2008-03-20 08:39:48 51°14.172 2°38.072 15.4381 0.141007 0.842979 -1.766697
2008-03-20 08:39:53 51°14.17 2°38.043 15.4404 0.141007 0.842979 -1.766697
2008-03-20 08:39:58 51°14.165 2°38.016 15.4397 0.141007 0.842996 -1.766697
2008-03-20 08:40:03 51°14.162 2°37.988 15.4414 0.141007 0.842963 -1.766697
2008-03-20 08:40:08 51°14.159 2°37.959 15.4426 0.141007 0.842963 -1.801521
2008-03-20 08:40:13 51°14.155 2°37.932 15.4429 0.141007 0.842963 -1.766697
2008-03-20 08:40:17 51°14.153 2°37.909 15.4438 0.141007 0.842979 -1.766697
2008-03-20 08:40:23 51°14.149 2°37.875 15.445 0.141007 0.842979 -1.766697
2008-03-20 08:40:28 51°14.145 2°37.847 15.4456 0.141007 0.842963 -1.766697
2008-03-20 08:40:33 51°14.142 2°37.819 15.4468 0.141007 0.842946 -1.766697
2008-03-20 08:40:37 51°14.139 2°37.797 15.4474 0.141007 0.842979 -1.766697
2008-03-20 08:40:42 51°14.136 2°37.768 15.4488 0.141007 0.842963 -1.766697
2008-03-20 08:40:48 51°14.131 2°37.734 15.4489 0.141007 0.842979 -1.766697
2008-03-20 08:40:53 51°14.128 2°37.706 15.4507 0.141007 0.842979 -1.766697
2008-03-20 08:40:58 51°14.124 2°37.678 15.4512 0.141007 0.842979 -1.766697
2008-03-20 08:41:02 51°14.122 2°37.655 15.4517 0.141007 0.842963 -1.766697
2008-03-20 08:41:08 51°14.118 2°37.621 15.4535 0.141007 0.842946 -1.766697
2008-03-20 08:41:13 51°14.114 2°37.593 15.4539 0.141007 0.842963 -1.766697
2008-03-20 08:41:18 51°14.11 2°37.564 15.4541 0.141007 0.842946 -1.766697
2008-03-20 08:41:23 51°14.108 2°37.536 15.4562 0.141007 0.842946 -1.766697
2008-03-20 08:41:28 51°14.103 2°37.507 15.4558 0.141007 0.842979 -1.766697
2008-03-20 08:41:33 51°14.1 2°37.479 15.4579 0.140904 0.842302 -1.766697
2008-03-20 08:41:38 51°14.097 2°37.45 15.4587 0.140904 0.842335 -1.766697
2008-03-20 08:41:43 51°14.094 2°37.422 15.4597 0.140904 0.842318 -1.766697
2008-03-20 08:41:48 51°14.09 2°37.394 15.4597 0.140904 0.842335 -1.766697
2008-03-20 08:41:53 51°14.087 2°37.366 15.461 0.140904 0.842335 -1.766697
2008-03-20 08:41:58 51°14.083 2°37.337 15.4619 0.140904 0.842335 -1.766697
2008-03-20 08:42:03 51°14.08 2°37.309 15.4627 0.140904 0.842335 -1.766697
2008-03-20 08:42:08 51°14.076 2°37.281 15.4637 0.140904 0.842335 -1.731873
2008-03-20 08:42:13 51°14.072 2°37.252 15.4636 0.140904 0.842318 -1.766697
2008-03-20 08:42:17 51°14.07 2°37.229 15.4659 0.140904 0.842335 -1.766697
2008-03-20 08:42:23 51°14.067 2°37.195 15.4662 0.140904 0.842335 -1.766697
2008-03-20 08:42:28 51°14.064 2°37.167 15.4671 0.140904 0.842351 -1.766697
2008-03-20 08:42:33 51°14.061 2°37.138 15.4693 0.140904 0.842318 -1.766697
2008-03-20 08:42:37 51°14.057 2°37.116 15.4687 0.140904 0.842351 -1.766697
2008-03-20 08:42:42 51°14.054 2°37.088 15.47 0.140904 0.842335 -1.766697
2008-03-20 08:42:48 51°14.05 2°37.054 15.4713 0.140904 0.842318 -1.766697
2008-03-20 08:42:53 51°14.047 2°37.026 15.4724 0.140904 0.842318 -1.766697
2008-03-20 08:42:58 51°14.043 2°36.998 15.4722 0.140904 0.842318 -1.766697
2008-03-20 08:43:02 51°14.042 2°36.976 15.4749 0.140904 0.842253 -1.766697
2008-03-20 08:43:08 51°14.036 2°36.943 15.474 0.140904 0.842318 -1.766697
2008-03-20 08:43:13 51°14.034 2°36.915 15.4754 0.140904 0.842286 -1.766697
2008-03-20 08:43:18 51°14.03 2°36.887 15.4763 0.140904 0.842253 -1.801521
2008-03-20 08:43:23 51°14.027 2°36.859 15.4773 0.140904 0.842253 -1.801521
2008-03-20 08:43:28 51°14.024 2°36.831 15.4779 0.140904 0.842318 -1.766697
2008-03-20 08:43:33 51°14.022 2°36.803 15.48 0.140904 0.842286 -1.801521
2008-03-20 08:43:38 51°14.018 2°36.775 15.4802 0.140904 0.842318 -1.766697
2008-03-20 08:43:43 51°14.015 2°36.747 15.4812 0.140904 0.842335 -1.766697
2008-03-20 08:43:48 51°14.012 2°36.719 15.4823 0.140904 0.842302 -1.801521
2008-03-20 08:43:53 51°14.009 2°36.691 15.4839 0.140904 0.842302 -1.801521
2008-03-20 08:43:58 51°14.005 2°36.664 15.4832 0.140904 0.842351 -1.766697
2008-03-20 08:44:03 51°14.003 2°36.635 15.484 0.140801 0.841674 -1.766697
2008-03-20 08:44:08 51°14.001 2°36.608 15.4866 0.140801 0.841641 -1.766697
2008-03-20 08:44:13 51°13.997 2°36.581 15.4878 0.140801 0.841658 -1.766697
2008-03-20 08:44:18 51°13.993 2°36.554 15.4876 0.140801 0.841658 -1.766697
2008-03-20 08:44:23 51°13.99 2°36.525 15.4878 0.140801 0.841658 -1.766697
2008-03-20 08:44:28 51°13.988 2°36.497 15.4901 0.140801 0.841625 -1.801521
2008-03-20 08:44:33 51°13.986 2°36.47 15.4915 0.140801 0.841625 -1.766697
2008-03-20 08:44:38 51°13.982 2°36.443 15.4904 0.140801 0.841674 -1.766697
2008-03-20 08:44:43 51°13.98 2°36.414 15.4925 0.140801 0.841641 -1.766697
2008-03-20 08:44:48 51°13.977 2°36.387 15.4943 0.140801 0.841674 -1.766697
2008-03-20 08:44:53 51°13.973 2°36.36 15.4938 0.140801 0.841674 -1.766697
2008-03-20 08:44:57 51°13.971 2°36.338 15.495 0.140801 0.841674 -1.766697
2008-03-20 08:45:03 51°13.967 2°36.304 15.4964 0.140801 0.841674 -1.766697
2008-03-20 08:45:08 51°13.965 2°36.277 15.4979 0.140801 0.841658 -1.766697
2008-03-20 08:45:13 51°13.961 2°36.249 15.4975 0.140801 0.841674 -1.766697
2008-03-20 08:45:18 51°13.959 2°36.222 15.4995 0.140801 0.841658 -1.766697
2008-03-20 08:45:22 51°13.956 2°36.2 15.4997 0.140801 0.841658 -1.766697
2008-03-20 08:45:28 51°13.952 2°36.167 15.5 0.140801 0.841658 -1.766697
2008-03-20 08:45:33 51°13.95 2°36.14 15.5026 0.140801 0.841625 -1.766697
2008-03-20 08:45:38 51°13.946 2°36.112 15.5018 0.140801 0.841674 -1.766697
2008-03-20 08:45:43 51°13.944 2°36.084 15.5022 0.140801 0.841641 -1.731873
2008-03-20 08:45:48 51°13.942 2°36.057 15.5051 0.140801 0.841641 -1.766697
2008-03-20 08:45:53 51°13.939 2°36.031 15.5056 0.140801 0.841641 -1.766697
2008-03-20 08:45:58 51°13.935 2°36.003 15.5049 0.140801 0.841707 -1.766697
2008-03-20 08:46:02 51°13.934 2°35.981 15.5072 0.140801 0.841658 -1.766697
2008-03-20 08:46:08 51°13.93 2°35.949 15.5074 0.140801 0.841691 -1.766697
2008-03-20 08:46:13 51°13.927 2°35.922 15.5086 0.140698 0.841014 -1.766697
2008-03-20 08:46:18 51°13.924 2°35.895 15.5096 0.140801 0.841707 -1.766697
2008-03-20 08:46:23 51°13.921 2°35.867 15.5092 0.140801 0.841707 -1.766697
2008-03-20 08:46:28 51°13.92 2°35.84 15.5119 0.140698 0.841014 -1.766697
2008-03-20 08:46:33 51°13.917 2°35.813 15.5115 0.140698 0.841046 -1.766697
2008-03-20 08:46:38 51°13.915 2°35.786 15.5134 0.140698 0.84103 -1.766697
2008-03-20 08:46:43 51°13.911 2°35.758 15.5133 0.140698 0.841046 -1.766697
2008-03-20 08:46:48 51°13.91 2°35.731 15.5157 0.140698 0.841046 -1.766697
2008-03-20 08:46:53 51°13.906 2°35.704 15.5153 0.140698 0.841046 -1.766697
2008-03-20 08:46:57 51°13.904 2°35.682 15.5168 0.140698 0.841046 -1.766697
2008-03-20 08:47:03 51°13.9 2°35.649 15.5171 0.140698 0.841063 -1.766697
2008-03-20 08:47:08 51°13.898 2°35.622 15.5191 0.140698 0.841063 -1.766697
2008-03-20 08:47:13 51°13.894 2°35.596 15.5193 0.140698 0.841063 -1.766697
2008-03-20 08:47:18 51°13.892 2°35.568 15.5203 0.140698 0.841079 -1.766697
2008-03-20 08:47:23 51°13.889 2°35.541 15.5212 0.140698 0.841079 -1.766697
2008-03-20 08:47:28 51°13.885 2°35.515 15.5218 0.140698 0.841079 -1.766697
2008-03-20 08:47:33 51°13.883 2°35.488 15.5236 0.140698 0.841063 -1.766697
2008-03-20 08:47:38 51°13.879 2°35.461 15.5225 0.140698 0.841079 -1.766697
2008-03-20 08:47:43 51°13.878 2°35.435 15.5255 0.140698 0.841046 -1.766697
2008-03-20 08:47:48 51°13.873 2°35.408 15.5245 0.140698 0.841063 -1.766697
2008-03-20 08:47:53 51°13.872 2°35.38 15.5265 0.140698 0.841063 -1.766697
2008-03-20 08:47:58 51°13.868 2°35.354 15.5272 0.140698 0.841079 -1.766697
2008-03-20 08:48:02 51°13.866 2°35.332 15.5284 0.140698 0.841079 -1.766697
2008-03-20 08:48:08 51°13.863 2°35.301 15.5291 0.140698 0.841095 -1.766697
2008-03-20 08:48:13 51°13.861 2°35.273 15.5304 0.140698 0.841095 -1.766697
2008-03-20 08:48:18 51°13.858 2°35.246 15.5311 0.140698 0.841079 -1.766697
2008-03-20 08:48:23 51°13.855 2°35.22 15.5319 0.140698 0.841079 -1.766697
2008-03-20 08:48:28 51°13.852 2°35.193 15.5329 0.140698 0.841079 -1.766697
2008-03-20 08:48:33 51°13.849 2°35.165 15.5332 0.140698 0.841079 -1.766697
2008-03-20 08:48:38 51°13.847 2°35.138 15.5349 0.140698 0.841046 -1.766697
2008-03-20 08:48:43 51°13.844 2°35.112 15.5357 0.140698 0.841079 -1.766697
2008-03-20 08:48:48 51°13.841 2°35.085 15.5357 0.140698 0.841063 -1.766697
2008-03-20 08:48:53 51°13.84 2°35.058 15.5375 0.140698 0.841063 -1.766697
2008-03-20 08:48:58 51°13.837 2°35.032 15.5392 0.140698 0.841079 -1.766697
2008-03-20 08:49:03 51°13.834 2°35.005 15.5385 0.140698 0.841095 -1.766697
2008-03-20 08:49:08 51°13.833 2°34.977 15.54 0.140698 0.841095 -1.766697
2008-03-20 08:49:13 51°13.831 2°34.95 15.542 0.140595 0.840451 -1.766697
2008-03-20 08:49:17 51°13.828 2°34.93 15.5428 0.140698 0.841112 -1.766697
2008-03-20 08:49:23 51°13.824 2°34.897 15.5422 0.140698 0.841112 -1.766697
2008-03-20 08:49:28 51°13.822 2°34.869 15.544 0.140595 0.840451 -1.766697
2008-03-20 08:49:33 51°13.82 2°34.843 15.5456 0.140595 0.840419 -1.766697
2008-03-20 08:49:38 51°13.817 2°34.817 15.5455 0.140595 0.840435 -1.766697
2008-03-20 08:49:43 51°13.814 2°34.789 15.5465 0.140595 0.840419 -1.766697
2008-03-20 08:49:48 51°13.812 2°34.762 15.5486 0.140595 0.840419 -1.766697
2008-03-20 08:49:53 51°13.808 2°34.736 15.5476 0.140595 0.840419 -1.766697
2008-03-20 08:49:58 51°13.806 2°34.708 15.5491 0.140595 0.840419 -1.766697
2008-03-20 08:50:02 51°13.804 2°34.686 15.5508 0.140595 0.840419 -1.766697
2008-03-20 08:50:08 51°13.801 2°34.654 15.5519 0.140595 0.840419 -1.766697
2008-03-20 08:50:13 51°13.798 2°34.626 15.5518 0.140595 0.840402 -1.766697
2008-03-20 08:50:18 51°13.796 2°34.599 15.5536 0.140595 0.840402 -1.766697
2008-03-20 08:50:22 51°13.793 2°34.577 15.5536 0.140595 0.840402 -1.766697
2008-03-20 08:50:28 51°13.789 2°34.544 15.5547 0.140595 0.840402 -1.766697
2008-03-20 08:50:33 51°13.787 2°34.516 15.5567 0.140595 0.840386 -1.766697
2008-03-20 08:50:38 51°13.783 2°34.489 15.5567 0.140595 0.840419 -1.766697
2008-03-20 08:50:43 51°13.782 2°34.462 15.5582 0.140595 0.840386 -1.766697
2008-03-20 08:50:48 51°13.778 2°34.434 15.5588 0.140595 0.840419 -1.766697
2008-03-20 08:50:53 51°13.775 2°34.407 15.5594 0.140595 0.840419 -1.766697
2008-03-20 08:50:58 51°13.773 2°34.38 15.561 0.140595 0.840386 -1.766697
2008-03-20 08:51:03 51°13.769 2°34.352 15.5618 0.140595 0.840402 -1.766697
2008-03-20 08:51:08 51°13.766 2°34.325 15.563 0.140595 0.840386 -1.766697
2008-03-20 08:51:13 51°13.762 2°34.298 15.563 0.140595 0.840386 -1.766697
2008-03-20 08:51:18 51°13.759 2°34.27 15.5646 0.140595 0.840386 -1.766697
2008-03-20 08:51:23 51°13.755 2°34.243 15.5651 0.140595 0.840386 -1.766697
2008-03-20 08:51:28 51°13.752 2°34.215 15.5661 0.140595 0.840369 -1.766697
2008-03-20 08:51:33 51°13.749 2°34.187 15.5674 0.140595 0.840369 -1.766697
2008-03-20 08:51:38 51°13.745 2°34.16 15.5678 0.140595 0.840369 -1.766697
2008-03-20 08:51:43 51°13.743 2°34.132 15.5695 0.140595 0.840337 -1.766697
2008-03-20 08:51:48 51°13.74 2°34.104 15.5695 0.140595 0.840369 -1.766697
2008-03-20 08:51:53 51°13.737 2°34.077 15.5713 0.140595 0.840369 -1.766697
2008-03-20 08:51:58 51°13.733 2°34.049 15.5719 0.140595 0.840353 -1.766697
2008-03-20 08:52:03 51°13.731 2°34.021 15.5732 0.140595 0.840337 -1.766697
2008-03-20 08:52:08 51°13.726 2°33.994 15.5731 0.140492 0.839709 -1.766697
2008-03-20 08:52:13 51°13.724 2°33.966 15.575 0.140492 0.83966 -1.766697
2008-03-20 08:52:18 51°13.721 2°33.939 15.5759 0.140492 0.839725 -1.766697
2008-03-20 08:52:22 51°13.717 2°33.917 15.5766 0.140492 0.839725 -1.766697
2008-03-20 08:52:28 51°13.713 2°33.884 15.5778 0.140492 0.839676 -1.766697
2008-03-20 08:52:33 51°13.71 2°33.857 15.5782 0.140492 0.839709 -1.766697
2008-03-20 08:52:38 51°13.708 2°33.829 15.5803 0.140492 0.839676 -1.766697
2008-03-20 08:52:43 51°13.705 2°33.802 15.5803 0.140492 0.839693 -1.766697
2008-03-20 08:52:48 51°13.703 2°33.774 15.5814 0.140492 0.83966 -1.766697
2008-03-20 08:52:53 51°13.702 2°33.746 15.5835 0.140492 0.83966 -1.766697
2008-03-20 08:52:58 51°13.7 2°33.719 15.5833 0.140492 0.83966 -1.766697
2008-03-20 08:53:03 51°13.698 2°33.691 15.5844 0.140492 0.839644 -1.766697
2008-03-20 08:53:08 51°13.696 2°33.664 15.5852 0.140492 0.83966 -1.766697
2008-03-20 08:53:13 51°13.695 2°33.636 15.5862 0.140492 0.839627 -1.766697
2008-03-20 08:53:18 51°13.693 2°33.608 15.5872 0.140492 0.839627 -1.766697
2008-03-20 08:53:23 51°13.691 2°33.58 15.588 0.140492 0.839627 -1.766697
2008-03-20 08:53:28 51°13.69 2°33.552 15.5897 0.140492 0.839594 -1.766697
2008-03-20 08:53:33 51°13.687 2°33.524 15.5899 0.140492 0.839611 -1.766697
2008-03-20 08:53:38 51°13.686 2°33.496 15.5917 0.140492 0.839594 -1.766697
2008-03-20 08:53:43 51°13.684 2°33.467 15.5914 0.140492 0.839578 -1.766697
2008-03-20 08:53:48 51°13.685 2°33.44 15.5939 0.140492 0.839578 -1.766697
2008-03-20 08:53:53 51°13.683 2°33.41 15.5917 0.140492 0.839578 -1.766697
2008-03-20 08:53:58 51°13.686 2°33.383 15.5953 0.140492 0.839562 -1.766697
2008-03-20 08:54:03 51°13.685 2°33.355 15.5951 0.140492 0.839627 -1.766697
2008-03-20 08:54:08 51°13.686 2°33.327 15.5966 0.140492 0.839594 -1.766697
2008-03-20 08:54:13 51°13.686 2°33.299 15.5968 0.140492 0.839627 -1.766697
2008-03-20 08:54:17 51°13.686 2°33.276 15.598 0.140492 0.839578 -1.766697
2008-03-20 08:54:23 51°13.687 2°33.243 15.5997 0.140492 0.839578 -1.766697
2008-03-20 08:54:28 51°13.687 2°33.215 15.5994 0.140492 0.839611 -1.766697
2008-03-20 08:54:33 51°13.688 2°33.188 15.6013 0.140492 0.839578 -1.766697
2008-03-20 08:54:38 51°13.688 2°33.16 15.6017 0.140492 0.839594 -1.766697
2008-03-20 08:54:42 51°13.689 2°33.137 15.6036 0.140492 0.839562 -1.766697
2008-03-20 08:54:48 51°13.689 2°33.103 15.6032 0.140492 0.839562 -1.766697
2008-03-20 08:54:53 51°13.69 2°33.076 15.606 0.140492 0.839562 -1.766697
2008-03-20 08:54:58 51°13.69 2°33.048 15.6063 0.140492 0.839545 -1.766697
2008-03-20 08:55:03 51°13.691 2°33.019 15.6067 0.140492 0.839545 -1.766697
2008-03-20 08:55:08 51°13.692 2°32.992 15.6085 0.140492 0.839545 -1.766697
2008-03-20 08:55:13 51°13.692 2°32.964 15.6083 0.140492 0.839562 -1.766697
2008-03-20 08:55:18 51°13.693 2°32.936 15.61 0.140492 0.839562 -1.766697
2008-03-20 08:55:23 51°13.693 2°32.908 15.6103 0.140492 0.839562 -1.766697
2008-03-20 08:55:28 51°13.694 2°32.88 15.6121 0.140492 0.839562 -1.766697
2008-03-20 08:55:33 51°13.695 2°32.851 15.6125 0.140389 0.838918 -1.766697
2008-03-20 08:55:38 51°13.695 2°32.823 15.6137 0.140389 0.838901 -1.766697
2008-03-20 08:55:43 51°13.696 2°32.795 15.6146 0.140389 0.838885 -1.766697
2008-03-20 08:55:48 51°13.696 2°32.766 15.6148 0.140389 0.838836 -1.766697
2008-03-20 08:55:53 51°13.697 2°32.739 15.6166 0.140389 0.838836 -1.766697
2008-03-20 08:55:58 51°13.696 2°32.71 15.6165 0.140389 0.838869 -1.766697
2008-03-20 08:56:03 51°13.697 2°32.682 15.6185 0.140389 0.838836 -1.766697
2008-03-20 08:56:08 51°13.697 2°32.654 15.6183 0.140389 0.838852 -1.766697
2008-03-20 08:56:13 51°13.698 2°32.626 15.6197 0.140389 0.838836 -1.766697
2008-03-20 08:56:17 51°13.698 2°32.603 15.6207 0.140389 0.838869 -1.766697
2008-03-20 08:56:23 51°13.698 2°32.569 15.6212 0.140389 0.838869 -1.766697
2008-03-20 08:56:28 51°13.698 2°32.541 15.6221 0.140389 0.838836 -1.766697
2008-03-20 08:56:33 51°13.698 2°32.513 15.623 0.140389 0.838852 -1.766697
2008-03-20 08:56:38 51°13.699 2°32.484 15.6244 0.140389 0.83882 -1.766697
2008-03-20 08:56:42 51°13.699 2°32.461 15.6253 0.140389 0.838804 -1.766697
2008-03-20 08:56:48 51°13.699 2°32.427 15.6255 0.140389 0.838787 -1.766697
2008-03-20 08:56:53 51°13.7 2°32.399 15.6271 0.140389 0.838787 -1.766697
2008-03-20 08:56:58 51°13.7 2°32.37 15.6275 0.140389 0.838804 -1.766697
2008-03-20 08:57:03 51°13.701 2°32.342 15.6284 0.140389 0.838787 -1.766697
2008-03-20 08:57:08 51°13.701 2°32.314 15.6298 0.140389 0.838771 -1.766697
2008-03-20 08:57:13 51°13.701 2°32.285 15.6302 0.140389 0.838804 -1.766697
2008-03-20 08:57:18 51°13.702 2°32.257 15.6308 0.140389 0.838738 -1.766697
2008-03-20 08:57:23 51°13.703 2°32.228 15.6326 0.140389 0.838738 -1.766697
2008-03-20 08:57:28 51°13.702 2°32.2 15.632 0.140389 0.838804 -1.766697
2008-03-20 08:57:33 51°13.704 2°32.172 15.6345 0.140389 0.838722 -1.766697
2008-03-20 08:57:38 51°13.703 2°32.143 15.6342 0.140389 0.838771 -1.766697
2008-03-20 08:57:43 51°13.703 2°32.115 15.6354 0.140389 0.838771 -1.766697
2008-03-20 08:57:48 51°13.703 2°32.088 15.6366 0.140389 0.838755 -1.766697
2008-03-20 08:57:53 51°13.702 2°32.063 15.6369 0.140389 0.838755 -1.766697
2008-03-20 08:57:58 51°13.702 2°32.04 15.6382 0.140389 0.838738 -1.766697
2008-03-20 08:58:03 51°13.702 2°32.02 15.6392 0.140389 0.838722 -1.766697
2008-03-20 08:58:08 51°13.702 2°32.001 15.6399 0.140389 0.838706 -1.766697
2008-03-20 08:58:13 51°13.702 2°31.983 15.6409 0.140389 0.838689 -1.766697
2008-03-20 08:58:18 51°13.702 2°31.968 15.6418 0.140389 0.838673 -1.766697
2008-03-20 08:58:23 51°13.702 2°31.953 15.6423 0.140389 0.838673 -1.766697
2008-03-20 08:58:28 51°13.703 2°31.94 15.6434 0.140389 0.838657 -1.766697
2008-03-20 08:58:33 51°13.704 2°31.928 15.644 0.140389 0.838689 -1.766697
2008-03-20 08:58:37 51°13.705 2°31.919 15.6449 0.140389 0.838706 -1.766697
2008-03-20 08:58:43 51°13.708 2°31.908 15.6458 0.140389 0.838722 -1.766697
2008-03-20 08:58:48 51°13.71 2°31.899 15.6465 0.140389 0.838722 -1.766697
2008-03-20 08:58:53 51°13.713 2°31.892 15.6477 0.140389 0.838722 -1.766697
2008-03-20 08:58:58 51°13.715 2°31.886 15.6487 0.140389 0.838738 -1.766697
2008-03-20 08:59:02 51°13.717 2°31.882 15.6495 0.140389 0.838738 -1.766697
2008-03-20 08:59:08 51°13.719 2°31.877 15.6503 0.140389 0.838738 -1.766697
2008-03-20 08:59:13 51°13.722 2°31.873 15.6513 0.140389 0.838722 -1.766697
2008-03-20 08:59:18 51°13.723 2°31.87 15.6517 0.140389 0.838689 -1.766697
2008-03-20 08:59:23 51°13.726 2°31.868 15.6529 0.140389 0.838689 -1.766697
2008-03-20 08:59:28 51°13.727 2°31.866 15.6541 0.140389 0.838689 -1.766697
2008-03-20 08:59:33 51°13.728 2°31.865 15.6549 0.140389 0.838657 -1.766697
2008-03-20 08:59:38 51°13.73 2°31.864 15.6554 0.140389 0.838657 -1.766697
2008-03-20 08:59:43 51°13.73 2°31.863 15.6566 0.140389 0.83864 -1.766697
2008-03-20 08:59:48 51°13.731 2°31.864 15.6576 0.140389 0.83864 -1.766697
2008-03-20 08:59:53 51°13.731 2°31.864 15.6584 0.140389 0.83864 -1.766697
2008-03-20 08:59:58 51°13.731 2°31.864 15.6593 0.140389 0.838657 -1.766697
2008-03-20 09:00:03 51°13.731 2°31.864 15.6603 0.140389 0.838657 -1.766697
2008-03-20 09:00:08 51°13.731 2°31.865 15.6607 0.140389 0.83864 -1.766697
2008-03-20 09:00:13 51°13.731 2°31.866 15.6615 0.140287 0.837997 -1.766697
2008-03-20 09:00:18 51°13.731 2°31.866 15.6626 0.140389 0.838624 -1.766697
2008-03-20 09:00:23 51°13.731 2°31.867 15.6635 0.140389 0.838624 -1.766697
2008-03-20 09:00:28 51°13.731 2°31.868 15.6642 0.140287 0.837931 -1.766697
2008-03-20 09:00:33 51°13.731 2°31.868 15.6651 0.140287 0.837915 -1.766697
2008-03-20 09:00:38 51°13.731 2°31.869 15.666 0.140287 0.837931 -1.766697
2008-03-20 09:00:43 51°13.731 2°31.87 15.6666 0.140287 0.837931 -1.766697
2008-03-20 09:00:48 51°13.731 2°31.871 15.6674 0.140287 0.837915 -1.766697
2008-03-20 09:00:53 51°13.73 2°31.872 15.6683 0.140287 0.837915 -1.766697
2008-03-20 09:00:58 51°13.73 2°31.873 15.6692 0.140287 0.837899 -1.766697
2008-03-20 09:01:02 51°13.73 2°31.874 15.67 0.140287 0.837915 -1.766697
2008-03-20 09:01:08 51°13.729 2°31.875 15.6709 0.140287 0.837915 -1.766697
2008-03-20 09:01:13 51°13.728 2°31.876 15.6718 0.140287 0.837915 -1.766697
2008-03-20 09:01:18 51°13.728 2°31.876 15.6725 0.140287 0.837899 -1.766697
2008-03-20 09:01:23 51°13.727 2°31.877 15.6731 0.140287 0.837899 -1.766697
2008-03-20 09:01:28 51°13.726 2°31.878 15.6738 0.140287 0.83785 -1.766697
2008-03-20 09:01:33 51°13.726 2°31.879 15.675 0.140287 0.837882 -1.766697
2008-03-20 09:01:38 51°13.725 2°31.88 15.6757 0.140287 0.837834 -1.766697
2008-03-20 09:01:43 51°13.724 2°31.88 15.6768 0.140287 0.837834 -1.766697